GFSMW_2pvu_pres_000.txt.gz
Presure
121 105 113 101 109 109 105 113 116 123 108 93 90 79 97 104 215 193 183 225 222 217 207 202 204 209 208 205 204 204 203 202 205 204 210 207 206 206 208 207 205 205 205
83 120 101 102 99 91 104 93 123 82 121 83 96 85 109 210 183 183 194 201 197 207 211 199 196 194 193 194 194 193 192 191 192 192 192 192 193 185 185 187 187 190 188
108 112 114 103 85 88 105 234 123 110 171 169 207 156 196 197 183 193 188 189 191 182 185 185 185 186 186 186 184 181 181 188 188 182 178 158 179 174 196 175 191 202 180
183 147 115 115 132 217 192 126 114 125 120 129 105 106 134 178 148 187 186 180 182 185 184 183 131 180 178 175 171 182 183 190 179 181 176 178 195 174 183 187 178 185 183
170 170 123 188 122 213 220 204 106 105 104 202 101 198 165 191 189 184 176 178 180 179 180 177 170 163 182 167 181 177 176 180 179 185 185 191 197 197 167 179 183 181 180
172 176 179 181 192 211 193 110 115 115 141 191 192 183 192 190 184 182 177 177 139 179 177 172 166 172 171 182 175 185 177 190 172 185 172 174 184 189 191 195 179 177 189
170 174 176 134 152 217 183 140 208 196 191 198 182 194 190 188 182 182 180 175 179 174 179 160 179 187 183 175 180 188 188 176 182 174 171 164 192 200 206 226 216 201 254
170 175 173 169 173 211 211 200 199 187 193 192 194 185 190 181 176 178 179 167 181 186 173 183 177 179 179 181 160 183 178 165 165 170 189 205 233 234 219 247 275 264 134
172 175 174 181 184 219 213 173 196 195 188 193 181 189 175 183 177 170 189 175 174 181 161 176 173 178 182 177 183 177 176 193 195 207 246 233 222 224 262 251 232 272 264
185 180 171 181 192 213 207 208 197 191 192 186 182 183 172 180 174 189 170 180 170 177 175 180 182 179 177 178 203 204 192 228 248 241 229 204 195 254 236 259 238 238 202
187 178 179 187 210 207 203 212 197 201 187 162 171 174 181 184 186 178 176 179 177 168 177 188 200 198 197 184 199 245 264 250 235 217 247 258 230 254 235 230 196 223 225
178 169 181 188 199 209 201 170 200 189 164 164 182 179 187 182 184 179 177 177 181 179 190 185 172 191 201 218 276 264 155 228 217 254 249 189 229 228 214 223 224 225 206
177 172 184 195 207 196 183 173 176 178 181 182 190 183 184 181 181 178 173 175 182 177 177 193 195 203 233 274 259 213 214 230 168 247 265 222 167 219 220 212 214 207 222
174 179 168 200 200 202 175 172 187 178 188 191 184 177 173 179 173 173 188 180 180 188 192 200 210 190 197 177 163 217 246 248 251 187 152 201 216 204 170 214 215 230 262
161 177 183 190 198 173 176 186 183 188 177 178 173 176 178 174 186 176 178 183 188 192 200 149 269 250 237 214 237 251 242 242 147 157 211 204 208 210 217 231 257 359 493
168 174 179 178 178 181 180 173 179 173 176 173 181 173 172 176 178 180 187 182 195 200 216 268 236 225 224 244 246 282 203 147 211 207 207 206 214 225 241 350 470 473 453
171 172 183 162 177 176 179 173 173 172 175 170 174 177 179 171 183 186 184 193 146 217 134 209 154 249 247 236 271 146 213 201 205 203 218 224 234 311 361 482 461 463 493
163 171 178 189 177 177 175 171 176 174 173 178 181 177 155 184 142 192 189 136 225 240 231 215 244 246 247 215 216 197 204 181 208 223 232 273 313 360 472 470 502 492 502
170 172 181 176 185 174 180 177 176 181 181 179 183 183 183 187 191 184 209 245 227 216 223 247 238 278 234 177 195 199 199 215 224 229 300 322 349 466 496 492 474 559 555
186 181 183 178 175 179 177 180 179 181 183 181 127 131 193 189 203 215 249 236 206 240 246 247 268 201 170 152 194 209 221 227 278 299 321 341 455 491 479 459 576 558 459
178 174 182 182 180 180 176 181 182 183 132 175 194 188 194 206 231 232 231 223 247 240 266 207 177 201 198 202 217 220 234 294 303 316 397 444 475 478 449 464 429 439 404
181 182 181 182 183 183 183 184 182 172 193 190 197 205 232 243 167 213 245 155 258 260 155 201 194 194 206 216 219 246 292 312 316 416 438 456 542 574 499 428 499 392 354
181 180 133 177 186 182 182 180 193 190 199 202 225 242 151 209 228 245 262 254 190 195 199 165 194 210 216 223 268 292 307 316 429 434 438 482 495 460 461 423 363 341 326
183 183 131 178 183 193 192 186 201 202 240 232 133 161 219 248 249 256 233 213 196 143 196 199 210 215 230 287 298 302 320 368 433 436 481 444 445 442 380 360 333 350 328
185 191 193 192 189 197 203 208 247 223 139 222 214 249 256 261 238 215 181 160 196 169 202 208 218 249 293 296 304 317 416 436 439 487 444 438 399 372 359 335 381 324 308
191 188 200 203 203 236 254 163 134 136 180 222 252 254 245 215 198 162 157 197 192 212 215 230 284 294 297 302 317 460 433 436 493 446 498 418 366 354 355 345 316 305 300

GFSMW_2pvu_pres_003.txt.gz
Presure
88 148 99 103 101 104 104 116 88 118 114 116 104 116 82 83 160 163 220 113 110 182 187 198 192 189 194 190 185 190 183 182 194 189 189 185 183 184 191 189 187 187 183
216 182 165 108 191 121 113 110 114 105 108 88 110 111 124 93 118 208 180 96 111 174 191 173 193 192 183 182 181 178 180 183 180 182 175 186 176 170 182 171 174 177 176
205 172 173 135 179 113 125 115 91 93 78 108 111 116 121 211 115 103 95 111 130 188 176 187 186 133 184 144 146 185 179 181 181 176 170 179 177 175 170 188 179 190 175
251 210 193 178 181 162 114 88 91 113 109 114 90 111 183 123 103 95 111 163 194 162 183 189 180 179 180 147 173 183 172 167 167 178 187 158 182 168 180 180 186 174 167
241 223 208 174 179 179 116 113 157 116 114 114 151 110 205 120 112 113 190 195 179 191 193 180 182 177 179 171 180 178 169 177 183 178 181 174 164 162 170 151 176 187 179
95 235 208 195 179 124 174 135 114 107 109 110 134 150 197 199 115 116 193 179 199 185 188 181 175 182 170 178 187 184 175 186 173 181 171 182 182 186 183 172 170 162 150
208 236 222 201 177 168 175 193 182 175 203 152 154 207 208 170 169 188 180 183 188 192 181 179 182 183 170 173 180 173 177 173 180 186 201 203 199 202 258 248 194 214 237
211 221 227 204 182 169 170 176 178 182 216 206 205 211 199 196 186 196 186 189 190 186 174 189 177 116 181 179 174 179 180 188 190 184 190 201 283 292 255 249 240 229 257
221 204 230 211 188 178 175 179 173 173 210 101 209 193 198 189 183 190 195 192 191 174 175 173 182 183 171 179 177 176 179 182 188 204 227 290 258 239 227 262 263 264 262
265 133 233 212 190 180 170 168 172 169 213 214 213 201 191 185 191 191 187 182 184 180 188 188 185 179 174 172 177 177 190 192 204 239 263 177 229 254 259 249 252 229 193
147 211 233 209 190 179 169 164 178 175 219 213 209 200 190 189 186 179 171 183 179 185 186 182 172 171 173 177 189 189 193 203 235 265 232 230 153 236 253 280 216 219 220
244 218 234 195 194 179 171 167 176 180 218 218 205 207 188 191 184 174 179 191 189 178 179 171 174 173 180 186 188 193 204 231 258 217 258 254 242 281 212 220 154 211 211
230 220 225 191 189 183 180 173 182 191 206 211 208 180 187 181 177 182 196 186 174 173 172 177 180 189 181 189 189 209 232 257 220 262 246 255 229 207 200 203 208 213 143
221 234 217 185 185 191 181 184 186 194 212 207 192 179 193 156 194 182 179 182 172 175 183 175 191 185 193 190 211 232 199 200 238 255 270 212 215 197 184 217 232 233 256
222 224 210 194 190 180 182 174 190 197 206 208 190 191 186 184 175 177 175 173 183 177 187 185 192 185 141 210 231 245 226 258 248 275 216 210 174 216 197 234 251 313 337
229 217 191 188 176 179 170 173 179 175 171 170 189 185 180 174 176 172 181 178 184 190 125 193 183 182 207 215 223 242 259 262 227 214 169 171 164 227 236 268 317 344 461
223 195 181 173 175 175 166 166 187 183 179 182 181 174 174 181 179 181 178 189 182 190 193 182 197 210 211 218 253 271 271 209 209 204 217 223 229 243 311 320 371 450 508
214 186 178 169 182 170 172 179 180 170 187 175 180 180 182 181 179 185 135 178 177 191 180 205 221 226 223 260 268 233 207 184 161 218 222 229 276 308 325 375 464 606 595
188 183 170 177 170 174 166 186 190 186 187 176 183 181 181 184 190 135 178 194 188 192 204 203 213 230 259 272 205 157 189 176 221 224 230 297 301 323 366 453 497 573 462
186 174 179 168 177 168 175 170 180 178 182 183 185 179 187 188 170 190 191 189 204 164 199 216 246 270 249 152 204 153 210 216 217 256 292 300 319 357 453 485 469 460 448
176 178 165 171 165 172 182 181 183 186 186 183 187 186 177 177 193 181 161 205 207 231 224 262 268 220 191 158 195 213 218 230 260 293 300 314 368 448 502 458 457 400 361
177 178 177 181 180 181 160 188 187 183 187 184 177 190 192 178 182 179 177 247 219 242 261 197 206 203 145 164 217 224 241 287 296 304 315 412 446 498 462 430 377 351 333
177 181 180 180 147 185 123 187 188 181 173 192 191 187 198 142 212 243 222 227 265 261 225 202 193 145 165 216 224 242 299 298 301 310 463 445 489 477 412 371 346 328 347
176 177 183 188 186 186 182 173 184 193 189 190 194 133 151 249 152 222 184 279 237 207 198 170 149 202 214 229 254 288 302 300 316 356 443 482 478 404 373 359 330 336 320
186 187 185 185 172 186 193 192 189 192 202 127 203 139 144 220 277 183 234 214 201 159 146 155 206 217 233 305 285 299 299 332 383 446 481 467 451 376 363 363 327 319 320
173 184 191 192 191 190 187 197 202 208 230 171 133 144 285 279 216 214 170 158 183 146 189 211 221 243 287 294 304 300 351 477 438 486 470 445 375 357 346 310 314 305 303

GFSMW_2pvu_pres_006.txt.gz
Presure
233 251 253 75 93 96 165 185 115 98 197 89 96 110 120 122 114 111 110 117 140 93 115 103 186 106 110 111 190 186 187 192 191 187 172 185 182 180 183 191 188 185 184
251 226 252 99 172 193 129 124 109 110 99 106 90 120 119 110 97 86 91 111 113 108 98 102 109 111 140 192 200 176 193 173 185 178 170 175 188 181 169 178 175 173 188
269 251 236 252 211 94 141 99 104 78 115 117 113 110 106 81 89 112 96 111 109 110 221 110 109 111 193 187 161 179 190 176 181 178 185 183 181 182 178 185 188 179 181
262 265 228 241 254 201 197 135 117 170 171 108 108 104 84 114 114 109 112 104 171 126 111 194 112 164 194 180 182 190 182 182 181 183 181 186 183 169 163 174 178 176 189
259 260 228 222 94 163 202 196 191 92 182 179 125 114 114 108 108 109 108 108 123 210 213 199 192 193 180 190 188 188 186 181 188 183 182 181 180 173 175 164 151 180 170
240 256 259 223 225 247 224 204 194 190 186 183 172 178 110 114 110 111 109 162 209 204 198 196 182 184 180 191 185 192 180 182 184 175 181 181 180 178 175 178 191 184 203
239 242 257 224 214 230 238 209 207 191 172 178 178 175 175 200 210 220 104 206 208 197 196 184 191 183 190 185 193 187 191 175 182 182 178 172 184 180 188 195 208 235 268
238 235 248 264 214 108 109 226 200 194 167 180 171 172 184 197 213 213 212 210 202 195 191 186 192 193 200 197 191 177 189 193 191 180 180 184 188 187 199 217 242 267 207
218 240 246 257 221 203 229 230 211 202 184 181 164 166 189 180 210 199 210 195 201 188 182 184 196 192 182 187 175 190 188 183 172 181 190 183 198 197 203 139 258 235 277
235 220 247 251 264 215 209 228 217 205 193 181 170 167 166 144 182 208 209 209 203 192 190 192 192 180 165 186 191 183 177 176 185 189 188 194 202 209 236 222 257 265 272
198 236 241 248 264 217 205 228 220 208 193 181 173 168 170 171 176 210 209 206 201 197 192 193 185 188 192 192 184 176 179 189 185 199 189 200 213 235 156 248 286 271 237
231 92 238 248 230 159 209 225 222 207 196 188 178 181 163 171 179 206 212 208 206 199 197 180 186 189 180 178 172 189 189 158 202 137 190 177 223 217 268 270 248 221 167
208 227 233 248 264 252 213 222 216 208 198 191 173 172 167 175 182 201 214 205 205 186 192 196 183 174 177 175 191 141 193 198 126 205 214 219 227 268 251 201 218 210 221
164 243 246 248 268 246 213 222 217 204 192 188 172 174 171 183 199 214 202 187 179 189 184 177 173 180 186 194 166 200 193 161 208 223 207 251 276 254 198 189 201 225 240
238 247 175 256 273 232 205 225 215 201 189 188 172 174 186 183 192 196 189 171 185 180 177 174 181 191 175 189 201 178 197 205 228 213 273 272 235 167 186 214 230 244 267
244 257 259 264 288 218 216 221 207 184 184 190 181 181 184 187 189 178 185 182 180 173 183 184 165 190 182 200 189 204 210 261 219 273 257 217 213 204 222 235 244 271 331
258 268 217 158 226 213 222 215 192 188 190 182 181 170 175 181 184 166 183 183 180 184 151 192 190 186 191 194 168 221 249 246 269 241 161 196 185 227 235 250 280 316 343
282 225 289 224 223 202 216 194 190 186 178 182 181 174 178 181 183 188 183 182 188 189 190 193 199 183 200 209 255 224 275 259 183 180 191 214 223 239 260 309 312 401 509
277 262 217 223 224 214 189 191 179 174 186 178 173 163 183 185 183 174 188 185 192 184 200 191 167 208 222 247 278 271 231 164 181 199 215 226 238 296 308 328 444 510 469
228 202 223 223 215 191 185 174 174 172 179 177 169 174 171 173 186 187 189 187 199 194 178 207 215 260 226 276 244 222 126 183 193 214 228 250 303 307 387 472 506 493 418
155 224 224 216 197 182 179 176 169 176 174 163 169 173 180 188 188 189 185 196 153 194 174 210 237 285 261 226 217 179 182 215 215 229 265 298 320 420 465 496 517 409 387
222 222 206 181 186 175 172 173 178 171 170 175 179 186 189 191 183 199 158 176 142 151 248 268 267 189 218 179 186 210 213 218 228 288 295 318 444 461 494 487 407 383 383
222 188 185 187 175 169 172 139 180 180 178 133 187 191 181 198 188 177 206 142 150 216 273 240 215 215 197 163 216 204 215 246 286 292 314 464 454 410 481 405 372 370 362
179 187 177 173 179 179 180 182 180 183 189 189 188 197 186 181 201 134 142 218 281 248 221 216 193 200 211 214 203 207 288 286 288 394 467 446 386 491 402 366 357 343 319
178 178 173 173 180 181 182 185 188 183 192 194 193 204 158 230 148 140 230 252 223 200 203 194 159 212 210 209 232 285 290 293 448 466 434 407 475 400 367 360 342 321 306
180 181 183 183 183 187 184 190 193 191 201 206 208 244 235 132 141 237 185 213 204 197 197 208 214 216 216 276 298 286 291 360 459 419 494 457 389 364 351 347 318 305 304

GFSMW_2pvu_pres_009.txt.gz
Presure
209 226 226 249 225 237 243 238 194 192 170 121 123 157 126 127 155 128 123 117 123 96 99 78 112 111 100 104 124 109 209 112 114 203 191 191 177 193 182 181 189 173 189
224 208 222 248 221 236 235 88 97 85 103 105 180 105 101 114 193 133 114 124 104 95 88 110 110 107 113 105 131 156 217 178 204 192 183 192 178 193 182 188 191 184 171
228 224 214 243 278 237 233 91 258 156 143 146 103 109 147 103 111 152 93 114 93 98 114 100 103 106 112 110 170 175 207 204 187 186 180 188 181 190 192 187 188 180 183
234 82 221 209 269 268 234 226 238 232 127 112 190 176 161 108 151 108 112 88 121 114 112 109 109 111 108 111 214 204 201 193 191 182 182 191 184 190 178 186 174 192 188
234 232 106 218 268 265 272 232 224 247 228 133 195 189 195 168 128 184 192 169 187 104 109 118 209 112 210 209 206 195 194 183 189 181 190 189 190 189 175 178 181 186 187
221 232 226 265 265 263 262 270 226 230 240 147 204 148 143 178 119 167 178 186 182 186 198 169 211 212 201 204 196 197 192 187 193 190 194 195 195 181 185 190 187 176 164
223 229 221 256 204 259 260 258 228 174 226 233 220 199 202 191 185 180 182 181 179 174 201 217 208 203 204 202 198 195 187 186 193 199 174 184 179 187 192 185 173 164 177
229 223 215 257 251 251 261 251 243 219 222 238 231 207 195 197 186 172 178 174 174 171 186 187 208 203 207 201 198 191 191 191 199 172 174 189 198 186 179 177 189 185 201
244 232 213 248 253 245 250 255 249 222 213 239 235 226 199 201 189 163 176 162 167 178 170 184 188 205 212 199 202 200 193 196 188 185 192 191 179 182 182 191 204 190 197
235 222 224 186 228 245 242 252 248 225 213 216 236 147 213 204 194 187 177 171 164 177 173 183 181 210 209 200 198 199 198 183 180 192 184 178 178 198 184 127 162 210 218
140 131 238 248 243 245 244 242 253 230 216 211 236 232 213 202 201 189 186 178 172 168 170 171 191 208 212 209 199 178 196 191 186 174 179 188 188 196 198 202 214 223 266
113 219 225 244 235 233 239 248 255 240 221 213 219 233 217 202 205 192 183 178 173 177 168 172 205 205 203 196 178 189 184 184 173 183 194 192 200 199 206 216 234 260 279
213 219 214 244 243 236 236 247 251 254 225 216 208 230 218 205 204 192 184 179 169 173 178 174 203 207 205 184 182 186 180 177 188 194 196 197 194 211 175 256 283 263 189
211 210 220 247 243 238 242 244 248 256 231 217 208 227 220 213 198 192 188 181 173 176 174 188 192 193 172 183 183 181 185 193 192 203 194 197 188 231 245 231 235 224 207
222 119 207 201 235 233 235 235 242 255 243 218 204 226 220 211 197 186 187 181 171 171 180 186 180 181 175 187 184 192 193 194 197 191 205 224 260 228 141 228 198 175 215
225 223 218 236 228 234 236 146 238 247 269 218 203 225 216 200 191 187 189 174 177 176 172 175 182 193 191 190 193 192 200 162 194 212 238 237 267 137 216 207 163 228 239
226 221 233 219 235 226 236 219 240 253 271 215 201 221 205 193 186 185 185 182 182 172 181 190 189 184 192 191 196 177 197 203 227 260 239 149 223 204 207 221 226 239 305
231 213 230 229 224 240 253 251 248 268 239 205 220 209 193 183 186 177 181 186 173 175 184 183 185 190 192 185 193 181 217 262 246 191 138 204 190 214 218 231 266 305 320
235 230 225 234 247 251 256 253 278 252 206 219 213 194 181 185 172 185 182 183 182 181 184 188 192 197 196 168 181 167 246 271 218 143 174 206 214 232 232 280 304 317 521
155 152 292 291 297 296 284 273 214 212 219 213 187 186 176 172 172 185 180 177 183 184 190 194 153 187 145 222 218 274 250 216 138 202 211 207 229 242 308 306 342 521 488
155 156 273 269 263 261 221 215 223 220 188 182 183 178 175 172 182 163 181 183 186 192 198 195 193 144 150 281 251 236 188 200 208 180 214 229 252 309 310 405 513 492 427
243 256 252 226 207 214 222 221 204 183 181 183 176 172 178 179 182 184 185 191 196 195 132 200 142 156 206 213 215 206 203 214 208 224 234 285 310 314 528 514 479 406 384
242 208 197 203 220 221 216 193 184 178 189 175 172 181 183 186 185 191 192 194 186 128 151 159 155 163 215 212 201 203 217 206 221 235 301 306 322 526 493 455 396 373 361
197 210 220 222 218 192 184 185 187 179 179 183 182 185 187 191 190 193 184 203 143 251 205 154 202 205 203 201 206 214 216 224 239 298 304 348 522 473 434 387 369 356 347
222 223 220 208 183 178 180 178 175 182 181 186 190 190 191 192 186 204 219 255 220 229 250 214 209 201 200 206 212 224 225 248 304 312 453 513 453 411 383 369 358 348 332
224 221 188 181 179 178 183 187 187 188 190 192 194 190 195 204 216 252 219 269 230 229 214 202 203 203 207 215 222 219 303 305 314 539 493 430 395 367 352 332 318 307 304

GFSMW_2pvu_pres_012.txt.gz
Presure
221 233 239 237 113 150 90 222 228 241 217 90 78 207 191 175 121 198 186 194 125 127 130 147 160 115 124 95 87 94 112 106 107 104 109 153 189 213 203 200 193 183 184
237 228 234 241 238 209 201 121 80 175 241 83 124 222 97 196 81 184 191 96 176 124 126 177 147 117 115 84 87 192 104 108 108 110 115 206 210 203 203 191 198 182 186
228 235 232 233 242 237 224 209 226 238 90 168 243 236 96 109 146 173 125 111 109 102 110 117 146 118 90 90 194 114 110 114 131 168 205 208 204 199 193 186 193 183 137
219 231 229 231 231 235 237 201 211 212 245 250 173 194 241 206 103 131 107 104 103 107 101 195 114 95 113 106 112 107 228 213 193 201 205 206 198 201 192 190 193 199 199
228 230 242 224 229 227 243 236 232 214 249 246 241 228 217 246 225 220 204 108 174 178 178 185 122 190 172 193 196 214 212 211 211 200 203 201 198 195 192 185 190 196 179
233 244 241 229 224 175 232 236 243 222 272 255 237 236 132 242 235 221 220 175 180 139 182 186 143 180 177 178 195 205 204 194 204 198 194 198 197 195 193 189 186 175 180
228 241 243 231 232 216 221 236 141 264 275 274 264 233 72 225 237 173 139 211 199 188 197 178 182 180 173 177 190 173 188 210 181 206 205 196 200 201 198 194 182 179 188
251 235 238 223 186 184 213 222 242 226 227 265 270 237 229 225 234 228 225 216 194 201 195 189 172 174 175 163 169 173 172 197 211 206 205 207 201 202 199 195 191 189 173
269 244 235 225 225 228 224 226 242 242 264 263 260 248 226 223 223 232 232 223 209 195 195 198 178 163 174 171 169 173 173 171 183 209 211 212 208 183 189 187 183 186 176
273 258 244 248 246 245 219 235 233 232 253 256 250 254 231 220 215 235 234 227 214 199 194 203 191 179 175 181 170 172 181 171 210 205 202 188 180 183 191 183 182 190 193
243 258 242 246 244 233 224 237 226 234 250 245 249 242 235 219 215 212 231 227 215 210 199 200 197 183 184 180 168 175 181 174 198 198 193 180 183 185 188 191 193 198 200
243 240 243 239 244 230 226 231 230 252 242 240 248 242 240 227 214 209 230 228 222 213 210 196 200 189 182 180 174 176 179 196 197 192 184 182 190 191 193 191 200 199 210
211 129 248 248 237 246 236 231 252 251 245 238 234 246 233 228 216 207 206 229 227 217 210 198 200 193 183 188 179 174 181 189 176 185 188 196 192 195 195 182 208 220 223
285 183 243 252 245 212 222 222 251 240 233 232 239 239 249 229 217 215 207 231 231 218 210 205 195 196 186 184 178 177 186 168 183 194 188 195 195 176 204 211 236 251 141
296 276 215 245 195 225 208 225 247 242 237 228 240 245 251 249 227 218 215 211 228 221 212 198 195 185 180 181 184 180 188 179 188 194 195 195 201 194 230 231 265 227 204
89 265 250 243 234 222 221 199 240 240 229 234 231 239 244 253 237 222 215 216 227 217 206 197 188 185 188 185 178 188 182 189 194 195 199 154 216 237 257 223 140 216 180
271 258 245 236 223 180 201 224 234 229 229 223 225 229 237 247 261 224 207 230 219 211 199 185 181 186 182 185 185 186 193 194 197 190 157 218 255 173 195 194 208 216 231
263 250 231 228 221 214 221 235 231 228 226 228 233 239 243 247 266 218 202 223 215 200 180 181 173 180 190 178 189 194 193 201 159 155 187 191 215 180 184 205 229 227 242
250 250 234 221 213 222 202 232 232 221 233 173 249 254 247 263 264 200 219 216 191 180 171 177 184 175 187 192 191 197 194 152 219 162 181 202 205 213 206 221 234 241 313
213 205 224 220 214 223 231 221 226 235 243 251 249 264 269 254 203 217 219 180 176 167 180 180 185 188 190 192 134 196 166 194 232 168 237 206 213 211 222 238 247 321 518
228 229 234 241 237 224 231 237 264 270 280 269 259 246 209 216 221 194 183 172 145 181 186 189 187 186 194 171 206 219 167 266 247 225 206 211 219 224 240 275 332 493 464
281 278 247 232 295 291 286 269 258 250 241 215 210 218 223 186 181 181 179 178 186 189 184 187 192 152 203 214 200 245 258 238 205 211 214 216 227 240 314 390 468 432 396
237 238 232 244 243 237 230 220 211 212 217 224 224 189 183 184 180 177 187 190 183 187 192 194 201 209 220 257 260 243 209 202 210 208 217 228 241 326 461 436 403 378 357
233 235 232 223 212 204 211 214 219 221 219 190 188 180 185 186 187 189 185 190 191 195 200 204 212 251 184 246 227 207 207 212 205 215 228 278 324 455 417 387 350 331 319
230 220 199 200 210 218 223 223 202 174 184 184 187 187 187 189 190 186 187 198 201 199 209 250 263 247 232 210 199 210 210 204 216 230 323 323 458 410 380 346 328 317 318
213 211 224 225 231 228 205 187 182 183 182 181 188 191 191 192 195 200 196 202 208 180 244 248 234 210 199 183 211 199 215 219 237 329 366 455 407 372 339 323 317 331 378

GFSMW_2pvu_pres_015.txt.gz
Presure
190 209 224 222 221 226 230 241 247 230 237 226 224 224 102 104 102 103 110 90 94 194 195 127 158 143 126 125 127 132 196 169 121 125 92 101 192 105 104 158 185 224 217
212 190 190 221 208 229 237 256 199 247 230 234 229 215 217 207 82 155 88 215 166 197 195 184 198 186 189 191 124 125 123 117 116 114 100 151 113 104 212 186 217 207 203
209 213 203 213 212 222 201 255 239 120 250 240 142 211 220 219 197 237 245 221 151 207 151 113 174 193 114 92 109 106 106 128 107 104 195 211 182 209 214 211 200 210 207
211 211 211 164 223 221 215 229 239 232 241 251 235 230 197 227 250 159 204 238 223 129 124 202 123 108 104 104 142 104 189 194 191 178 172 187 181 211 212 213 203 202 202
206 211 210 214 219 220 221 223 236 239 234 235 252 236 98 214 227 245 102 231 234 223 227 228 207 92 94 99 183 107 181 185 181 181 179 178 213 179 207 198 198 204 206
233 227 224 225 226 224 224 224 220 237 246 233 242 243 228 213 213 236 237 229 225 183 176 86 97 206 212 178 165 152 107 182 183 183 171 172 171 180 170 174 179 200 204
232 226 224 218 219 220 220 220 232 237 242 226 230 244 241 232 213 231 229 234 196 229 229 223 224 222 220 199 184 185 187 174 178 174 171 171 170 177 180 174 175 203 208
234 233 229 225 224 220 222 227 230 237 237 232 220 154 125 228 238 266 254 226 228 231 241 233 207 222 219 181 155 205 197 191 184 164 174 177 173 178 182 178 179 198 210
248 228 237 236 229 223 222 238 234 232 232 233 225 216 239 229 241 258 256 241 159 221 231 232 229 223 221 218 212 200 194 199 189 178 178 182 172 175 181 177 198 200 191
251 253 266 261 257 212 243 235 240 232 232 222 180 206 216 235 250 261 258 246 235 218 222 223 225 231 223 222 215 211 193 195 199 188 182 181 176 180 179 180 176 186 191
452 451 250 258 264 255 250 262 247 233 225 220 230 222 236 254 243 254 250 248 240 233 220 227 229 229 227 225 216 210 205 195 198 197 188 182 186 184 181 179 190 188 182
414 249 271 251 242 257 249 263 249 222 217 216 231 222 228 229 251 248 246 243 246 233 224 224 221 236 233 227 218 214 209 208 205 199 197 183 184 183 180 188 189 183 185
391 406 300 254 244 241 239 269 246 231 239 242 226 222 226 244 242 240 241 242 239 243 230 224 218 214 232 230 223 218 211 208 206 197 196 183 182 189 183 187 184 180 203
376 332 324 124 239 132 169 266 242 243 240 234 230 225 237 249 239 239 236 240 243 239 230 224 217 212 208 233 228 221 216 210 202 198 183 186 188 184 189 186 199 208 162
377 110 266 229 232 222 235 232 239 243 242 236 225 231 257 239 230 229 235 234 240 250 240 230 223 216 204 236 230 223 215 208 197 182 185 183 188 186 194 203 213 206 229
334 296 280 248 228 241 227 236 250 247 233 218 214 235 235 235 236 225 235 241 241 242 253 246 229 221 207 236 227 223 214 182 179 180 183 188 187 200 203 180 227 227 178
297 286 273 259 248 245 242 257 247 229 225 206 222 209 233 229 227 224 225 228 229 236 243 256 239 216 203 232 225 217 178 178 184 181 185 186 149 136 174 216 181 212 232
294 281 270 263 259 257 256 246 231 220 213 208 215 218 229 220 224 224 227 234 236 240 243 259 253 206 206 225 188 176 184 183 183 191 197 150 213 224 189 210 265 231 215
289 286 281 269 258 248 241 190 220 203 225 234 219 230 216 222 227 228 236 244 240 249 267 263 208 214 223 177 184 181 183 190 193 201 207 214 222 218 266 234 222 216 230
259 257 249 243 230 188 189 223 218 213 206 216 215 216 224 227 166 241 243 258 265 255 248 214 219 180 186 179 182 187 193 200 195 211 223 222 241 260 197 221 217 228 237
240 221 235 233 228 220 217 214 208 215 216 215 220 228 236 248 263 270 258 244 223 216 206 178 177 179 182 189 192 198 198 209 217 220 229 261 253 217 220 221 231 238 272
261 251 232 240 237 223 220 221 226 226 230 243 273 282 269 248 235 220 215 196 188 189 185 183 186 189 191 197 199 208 214 192 218 261 254 216 213 211 227 233 241 377 412
254 243 240 238 237 242 186 261 274 284 254 241 233 224 215 216 222 206 189 186 187 185 186 189 192 197 201 207 210 177 218 261 192 202 217 210 217 231 234 246 441 403 376
245 246 261 175 180 269 247 235 228 223 220 218 219 222 216 180 187 187 184 182 188 193 193 198 203 206 211 221 221 262 234 242 196 213 212 225 229 241 338 427 397 365 339
235 232 232 227 223 219 211 205 214 216 221 225 218 194 189 185 184 187 191 194 196 200 202 204 209 213 220 254 245 240 190 215 207 213 225 237 275 458 416 386 351 332 379
228 230 232 198 202 210 233 234 229 225 222 189 185 186 190 191 193 197 200 201 200 170 209 212 245 241 242 239 229 200 213 205 223 233 240 383 450 409 374 343 330 381 360

GFSMW_2pvu_pres_018.txt.gz
Presure
211 210 210 212 215 223 125 225 226 196 224 93 205 232 260 243 235 223 207 217 106 77 100 174 92 81 95 100 196 200 195 123 200 117 111 122 97 121 122 120 169 105 151
210 212 211 205 209 217 218 210 215 218 230 226 224 266 251 245 137 102 171 222 102 102 243 204 90 108 101 135 191 193 129 163 197 191 183 168 109 103 111 205 173 191 141
216 224 216 204 205 210 211 220 184 185 199 208 212 138 148 161 238 228 232 181 155 146 99 154 134 102 178 228 215 193 198 161 180 113 100 104 101 145 138 180 185 135 183
198 211 213 221 220 207 212 214 214 210 228 198 225 213 234 232 235 134 241 227 220 205 216 173 172 245 245 235 232 139 215 199 109 99 104 106 114 181 189 149 99 176 174
220 219 214 213 220 229 213 210 213 217 225 165 221 220 227 226 242 231 261 234 226 208 223 247 238 231 240 96 226 219 97 224 170 115 182 184 187 180 104 182 187 181 175
222 227 224 219 220 219 227 221 208 206 212 213 222 226 232 225 236 240 232 250 91 92 208 226 238 238 134 231 234 219 95 188 228 222 158 213 186 128 189 182 179 180 177
217 224 223 225 228 230 226 222 222 216 209 214 224 222 226 222 231 244 229 235 238 238 218 207 216 180 97 237 224 235 225 226 227 155 222 220 182 201 206 200 187 161 179
230 242 236 234 232 236 236 234 227 225 225 224 223 221 216 217 230 239 230 227 242 238 239 222 217 252 234 232 242 241 236 226 226 225 220 219 214 208 207 203 203 193 185
275 284 285 260 251 244 240 239 238 225 225 224 219 215 223 223 231 230 232 235 218 240 239 269 266 263 248 239 226 229 230 243 226 226 227 221 217 214 210 212 202 203 200
330 290 272 274 231 269 258 252 243 228 225 220 215 219 222 221 228 234 221 226 236 180 238 235 266 268 257 242 234 227 226 228 220 233 226 224 223 218 213 209 204 203 206
104 310 365 309 300 263 266 245 234 230 214 224 216 223 223 223 230 233 224 216 196 235 230 251 258 251 259 254 240 230 226 216 229 228 231 232 226 224 218 216 215 216 212
352 366 376 416 404 407 257 255 254 246 235 233 226 226 220 229 234 227 219 222 223 232 259 252 245 245 244 254 244 237 231 228 223 226 227 234 233 230 228 220 216 212 216
365 382 407 396 411 440 322 254 253 137 245 253 252 248 235 237 229 221 217 215 220 224 250 239 239 242 240 240 241 243 237 231 223 221 216 227 241 239 234 229 221 216 195
367 378 372 373 391 392 364 279 247 207 231 251 254 244 251 236 219 232 235 228 224 230 248 237 240 237 232 234 242 250 250 238 234 222 214 206 236 244 236 230 222 188 190
390 362 353 355 358 176 300 341 304 238 244 237 237 187 241 207 240 235 228 223 238 252 234 225 225 235 238 238 238 245 251 255 255 233 219 208 228 243 234 190 190 192 192
356 348 354 349 344 325 130 255 97 237 204 225 257 235 235 239 227 224 213 235 228 230 233 232 221 226 232 234 236 241 244 258 265 243 216 213 230 234 188 192 191 194 135
348 330 315 302 288 272 241 235 232 220 214 249 224 228 228 223 230 233 226 246 232 233 216 223 226 229 241 237 242 242 254 270 265 220 216 230 186 192 192 192 201 210 215
280 276 272 268 247 231 226 222 219 226 226 230 237 230 216 204 205 221 206 227 213 219 225 230 232 237 240 241 250 265 253 249 218 224 205 191 189 193 199 207 214 221 236
259 252 249 243 237 233 228 227 233 234 229 238 218 210 208 206 228 216 224 229 217 226 233 236 242 246 253 251 239 228 220 225 196 187 191 192 197 209 214 220 236 241 274
279 255 249 248 245 241 239 236 236 241 235 204 212 213 246 207 212 225 216 217 227 239 242 251 259 230 218 218 224 198 183 190 191 194 203 207 216 224 236 242 274 213 219
249 251 255 258 257 253 248 242 237 234 225 212 209 207 211 215 217 223 225 239 245 265 250 214 211 221 194 188 184 191 192 194 201 176 216 223 233 239 266 202 222 229 238
246 240 246 236 247 240 211 225 227 225 209 208 209 213 215 217 221 232 250 271 209 209 215 223 189 182 187 186 192 199 204 211 215 220 230 246 261 255 246 231 236 243 248
252 247 240 234 224 223 225 217 219 244 216 215 215 215 224 241 282 217 206 218 221 188 189 184 183 189 195 199 205 211 217 220 261 256 202 254 246 233 232 244 243 265 401
252 243 241 232 226 227 229 230 230 233 237 260 288 269 206 207 212 215 216 212 185 184 184 189 196 201 205 183 223 261 268 262 205 250 244 233 240 241 243 255 424 389 360
235 243 257 254 265 264 269 272 238 230 204 207 209 212 214 215 213 198 183 185 187 192 199 203 208 227 252 260 245 222 246 208 240 231 235 233 241 256 453 413 378 349 344
219 205 208 204 200 201 204 206 210 215 219 216 213 216 218 184 187 189 190 198 204 211 235 178 271 260 251 227 242 235 228 229 227 223 238 318 519 446 402 368 345 346 340

GFSMW_2pvu_pres_021.txt.gz
Presure
205 210 213 218 222 215 221 220 219 214 216 217 210 135 222 200 182 193 185 203 171 248 226 111 175 104 88 91 100 77 92 98 96 100 99 103 198 197 129 139 192 193 94
209 215 218 211 221 215 220 221 219 217 214 215 226 222 185 224 180 220 211 233 227 247 250 234 233 229 137 198 144 103 106 132 100 102 102 158 170 193 192 159 111 98 184
217 212 217 216 214 209 212 214 215 215 215 212 213 212 223 217 219 212 203 213 219 221 237 247 220 237 232 224 102 98 96 100 104 165 226 232 214 138 104 190 192 97 110
202 208 217 214 220 215 216 217 212 212 230 224 206 207 208 213 227 191 196 184 196 230 246 238 243 245 229 229 190 189 214 136 235 247 212 222 92 89 124 147 174 193 186
222 215 215 216 221 209 217 219 217 201 211 217 217 221 213 173 212 175 209 162 215 214 213 255 232 263 245 235 224 212 222 232 234 232 243 90 93 230 222 225 223 215 208
222 215 216 218 222 224 221 215 215 220 221 212 208 214 225 218 214 214 219 218 183 229 217 242 246 237 244 248 234 219 208 222 238 241 162 139 233 233 224 223 221 216 219
222 218 221 225 226 222 220 220 221 217 220 216 219 210 213 220 227 225 201 200 221 229 225 227 244 241 233 249 242 183 168 230 192 233 236 235 230 225 229 225 221 222 222
132 228 224 221 220 220 222 226 232 228 224 223 215 205 207 213 211 223 215 190 219 224 219 227 243 240 227 225 247 232 234 269 271 253 238 208 226 244 240 232 231 230 223
142 234 231 228 229 235 232 231 231 237 233 227 218 217 213 213 215 216 223 217 219 216 220 222 241 231 227 223 221 225 259 265 270 266 96 242 238 228 228 230 236 244 240
253 187 214 253 247 265 267 187 154 243 239 239 233 226 223 222 223 212 222 218 217 215 221 217 236 230 231 226 223 192 259 260 250 252 257 253 245 239 236 231 228 231 233
304 217 208 250 281 129 281 321 367 284 274 261 253 240 235 231 227 181 211 205 213 220 213 221 232 242 221 222 212 226 253 247 246 255 254 251 254 257 253 241 237 227 234
94 101 113 327 125 131 132 378 429 394 247 264 274 264 258 248 241 222 216 216 217 219 216 234 227 232 217 230 220 225 250 244 242 239 242 246 245 252 256 261 246 245 231
351 193 335 175 178 170 381 384 390 377 376 247 257 261 257 250 240 221 214 217 222 227 233 221 228 213 231 226 222 250 250 235 231 236 241 244 247 246 251 259 264 267 245
356 340 349 357 356 383 405 393 401 376 365 347 246 261 252 230 217 220 225 235 240 224 232 222 216 232 224 224 254 239 237 235 232 229 230 238 240 241 250 252 263 273 270
404 364 356 376 398 407 414 369 348 262 328 200 234 242 244 238 232 230 240 222 230 236 223 216 232 217 224 236 239 235 229 226 229 239 243 257 256 257 270 275 184 257 255
376 378 382 382 340 350 344 334 334 338 137 329 246 101 223 224 259 231 243 237 228 215 228 225 218 230 224 225 226 223 225 236 239 251 260 263 263 251 244 240 234 226 228
318 321 329 319 330 288 276 265 264 287 286 224 223 225 232 224 230 238 203 219 225 223 214 234 225 213 230 218 217 232 236 248 261 263 233 227 225 231 229 214 206 199 201
267 277 287 293 294 287 285 276 308 286 265 246 234 214 217 248 222 218 219 221 229 241 201 204 223 219 214 227 245 259 267 238 222 223 233 220 205 194 194 200 202 204 216
251 248 248 247 247 243 244 240 238 237 232 225 216 206 227 217 220 227 215 222 212 207 213 216 219 229 235 245 255 219 211 226 208 197 193 189 200 202 207 211 219 225 275
242 227 227 103 229 231 231 229 225 223 219 216 204 221 226 227 225 200 215 216 213 200 214 246 230 231 241 209 217 222 190 194 191 195 203 207 212 215 230 266 269 265 241
266 247 239 234 230 232 228 223 220 222 225 224 231 227 222 213 215 209 201 205 213 224 227 231 211 220 219 222 195 190 189 194 202 206 212 233 270 262 259 252 208 236 233
252 251 249 247 244 239 240 234 228 235 237 241 233 235 221 238 198 215 216 217 227 222 215 233 218 197 182 187 190 197 201 204 223 261 263 257 250 216 226 234 234 236 255
234 242 238 244 240 235 245 244 240 240 234 241 231 216 228 224 221 225 230 220 223 231 190 182 185 184 188 194 200 205 263 265 253 247 235 217 227 237 216 237 254 473 427
238 200 153 228 228 235 270 243 225 225 217 215 216 218 219 224 222 223 228 234 183 184 187 187 190 193 202 240 256 136 248 231 235 231 222 237 174 241 266 441 458 413 388
243 253 258 252 242 239 239 239 243 251 248 246 249 248 247 246 241 229 204 190 186 188 189 202 224 241 271 257 162 227 231 220 228 227 232 229 271 355 504 443 404 372 346
218 217 231 209 203 201 203 211 206 208 210 211 212 211 209 207 196 189 183 188 212 223 229 236 266 255 230 224 222 219 224 227 221 236 260 326 353 483 427 389 358 332 327

GFSMW_2pvu_pres_024.txt.gz
Presure
182 187 192 189 190 190 212 215 213 213 216 206 208 211 204 203 202 199 213 211 224 227 217 215 228 199 102 104 104 106 217 219 233 84 104 96 96 102 99 97 90 82 105
198 201 206 208 208 208 214 215 213 202 208 224 218 222 215 222 224 225 219 215 216 215 215 215 211 191 231 209 221 218 250 145 111 225 94 96 226 96 102 102 97 101 214
202 204 205 205 205 208 211 217 210 205 210 214 221 219 219 214 209 210 206 214 214 216 217 213 216 220 213 100 198 228 243 247 234 235 231 192 93 100 222 92 157 235 131
210 210 209 209 208 211 208 212 213 211 215 215 216 202 209 211 199 194 201 193 207 207 202 201 202 213 198 201 222 200 251 243 251 242 230 215 216 194 92 150 219 227 241
209 211 209 207 153 206 150 211 212 217 232 203 217 213 211 211 212 197 204 204 204 204 212 210 207 175 224 205 170 230 224 259 235 257 246 236 228 217 207 199 235 223 226
212 211 212 215 218 218 219 221 226 226 225 223 216 216 213 206 219 215 194 202 199 206 210 216 217 215 224 213 217 228 234 249 247 235 241 244 182 136 235 224 201 210 237
255 242 239 238 240 242 238 233 230 231 224 226 217 217 218 217 216 215 210 208 207 203 203 207 218 225 222 202 210 226 221 237 245 237 230 222 234 231 252 249 266 248 219
253 245 249 253 258 247 248 247 235 234 235 230 219 217 218 220 217 212 215 202 209 211 212 204 222 221 210 219 208 219 223 222 241 234 234 227 222 236 265 267 266 263 257
264 209 255 260 244 257 252 247 175 235 236 233 165 228 214 111 214 215 215 212 203 210 206 204 210 213 221 213 219 217 223 213 230 240 228 235 223 236 236 246 253 257 255
242 244 247 251 252 121 111 179 219 157 243 245 245 245 234 209 220 217 213 214 216 210 205 211 205 216 220 219 215 214 221 221 231 237 225 231 231 233 192 251 252 251 251
197 277 231 239 139 264 250 253 120 258 254 253 242 253 247 243 228 220 215 212 206 209 212 213 213 219 213 203 212 220 217 235 222 225 236 238 238 259 256 245 237 241 242
82 180 311 89 95 309 305 290 302 331 138 136 327 321 307 265 257 243 239 220 211 209 215 214 219 217 220 217 207 215 237 226 226 235 233 229 243 240 242 241 236 234 238
256 250 384 397 391 285 381 305 303 290 157 128 201 320 323 334 274 256 252 242 233 228 226 227 229 226 222 190 221 234 224 227 230 225 237 236 232 232 231 237 241 245 263
329 391 383 460 381 355 354 346 206 185 229 336 339 329 325 339 248 285 252 244 238 241 242 240 210 221 193 225 231 223 230 230 224 222 224 231 226 230 239 264 270 278 259
340 347 393 396 386 374 375 413 427 420 429 421 361 321 390 278 247 269 245 245 244 243 233 225 211 180 225 225 235 229 232 225 202 219 221 220 238 253 261 256 231 225 233
334 273 361 357 346 334 343 362 434 441 422 410 333 126 94 152 225 230 240 238 229 225 222 234 220 183 227 231 227 230 227 204 221 218 237 253 271 234 218 218 216 208 209
276 154 273 290 287 292 298 292 293 315 322 322 325 301 275 290 227 239 236 230 225 240 220 228 187 222 225 219 237 200 203 215 240 239 238 228 221 230 213 203 198 192 197
261 265 275 288 282 282 280 259 274 288 270 274 276 224 236 229 238 225 218 229 211 196 193 220 206 213 225 253 191 225 236 239 232 213 225 220 207 194 194 194 201 210 246
229 243 257 273 298 286 294 285 291 259 264 257 200 232 234 225 226 206 214 204 172 226 216 214 221 227 234 215 228 232 228 218 237 215 197 190 193 208 204 232 243 254 245
224 224 225 232 129 237 249 247 244 218 212 226 202 209 222 222 214 212 205 212 205 216 214 234 204 215 226 237 217 219 232 204 192 192 193 201 204 258 155 249 238 230 234
236 227 223 222 226 226 229 233 235 228 227 227 219 219 197 221 239 239 226 224 234 235 202 212 216 219 220 212 217 197 190 185 203 202 203 210 144 178 233 227 228 230 235
263 255 240 236 228 225 226 222 221 215 213 218 216 223 222 224 219 235 235 237 211 214 214 224 221 211 224 194 189 193 197 203 222 242 270 238 219 224 227 227 235 242 266
246 206 235 259 260 250 237 237 236 237 239 228 229 238 229 228 250 218 214 217 216 222 229 214 209 190 188 196 200 206 225 238 258 233 212 222 222 223 228 242 256 307 358
254 231 228 238 166 222 237 254 251 245 240 233 231 234 232 232 226 227 228 225 226 231 195 186 189 202 202 212 223 236 247 218 217 219 221 221 222 152 253 290 334 379 421
237 253 258 258 249 248 250 237 239 234 247 247 241 241 237 239 239 241 225 224 194 199 202 208 209 213 227 238 248 203 144 217 221 216 216 230 244 282 313 352 438 406 358
232 230 227 221 216 219 224 213 208 216 215 213 217 220 219 202 194 193 214 210 206 205 207 228 241 250 250 220 139 216 213 214 215 223 240 261 310 332 375 443 388 350 332

GFSMW_2pvu_pres_027.txt.gz
Presure
187 189 179 181 187 185 193 198 186 197 188 187 189 190 194 194 184 202 214 212 213 206 205 203 204 204 207 206 209 220 218 235 209 109 108 107 108 110 94 110 96 101 97
185 198 201 199 199 199 201 198 201 188 187 191 199 201 199 203 215 206 200 217 218 224 224 224 221 218 218 219 221 128 218 215 218 222 220 214 222 241 253 250 242 237 236
202 195 207 207 195 199 197 198 201 204 205 205 210 211 210 208 210 210 200 205 217 208 205 206 215 212 215 216 207 214 221 207 217 159 168 102 150 159 180 242 248 239 164
210 206 200 199 201 201 201 205 204 205 209 212 211 206 203 201 207 211 200 200 205 212 211 191 195 198 200 198 204 204 202 214 211 204 203 217 190 174 248 246 242 249 248
206 206 209 213 212 211 211 212 212 209 206 212 222 221 214 202 205 205 208 207 215 209 210 205 202 204 198 204 203 213 215 215 224 230 217 222 89 232 228 250 237 238 246
198 202 175 208 212 212 211 211 212 215 217 167 214 221 223 216 214 215 214 216 221 203 199 199 196 210 211 206 202 207 213 211 212 228 227 223 222 223 220 241 243 233 239
163 218 219 207 209 216 217 219 223 222 222 219 214 217 217 215 217 221 201 214 208 201 214 212 212 213 215 203 207 188 209 215 207 217 211 224 218 222 227 231 248 235 230
244 244 243 243 246 250 256 258 260 259 255 253 244 244 241 235 230 228 232 227 222 220 210 202 215 212 213 210 205 212 206 213 206 207 213 217 219 215 222 215 240 234 225
236 241 247 248 261 263 266 298 295 286 267 128 250 247 233 248 253 243 240 242 232 223 227 211 207 210 194 194 199 210 205 208 210 206 210 206 208 213 224 238 232 234 230
241 175 284 273 267 265 264 202 252 270 271 274 275 274 271 267 264 255 244 240 224 225 222 221 205 199 202 203 210 210 213 207 211 214 215 221 219 214 222 238 232 227 230
262 255 254 254 166 250 253 125 265 112 157 121 167 261 261 260 259 255 250 241 233 225 221 225 220 206 206 209 206 210 204 211 211 207 215 225 220 221 235 230 232 221 225
242 98 138 96 226 88 247 107 312 288 246 281 283 269 126 133 266 243 239 243 235 229 233 226 215 213 207 204 210 203 205 207 207 216 225 228 227 236 230 236 225 212 217
217 84 290 281 168 336 347 347 334 317 321 306 318 309 294 155 282 281 283 280 284 246 237 234 233 217 214 200 204 205 210 214 152 226 226 212 225 228 237 232 212 212 216
287 272 281 339 349 411 429 429 416 379 393 406 386 319 312 265 265 277 283 293 210 292 285 240 199 232 227 224 224 215 154 222 233 192 220 233 228 238 225 207 209 232 231
267 272 286 316 235 330 340 365 384 370 361 347 350 355 358 306 156 218 275 188 281 199 193 261 256 236 235 230 191 226 179 206 224 225 231 231 241 242 207 212 223 218 254
248 271 269 290 291 305 307 318 333 421 420 415 374 352 348 348 344 343 329 311 234 156 152 280 246 231 229 234 232 219 214 215 227 222 229 239 215 202 219 216 242 235 221
235 233 274 265 266 275 276 279 301 305 337 365 422 423 432 414 364 360 346 339 196 307 278 239 239 234 224 206 190 216 227 236 249 242 214 215 204 238 241 246 211 209 194
233 224 242 306 283 269 268 260 285 282 290 299 295 310 320 312 287 273 255 247 244 238 236 231 227 180 194 212 216 217 249 205 222 225 231 229 234 236 216 200 189 193 242
235 227 224 234 283 280 275 272 277 274 268 278 256 251 251 230 230 239 225 235 232 217 228 213 194 213 222 204 235 238 212 213 222 223 215 227 206 194 199 223 233 239 220
241 229 213 222 222 257 218 241 237 258 246 243 232 238 194 196 226 216 161 221 238 215 224 224 222 216 234 240 205 210 217 220 211 221 200 198 196 211 226 234 238 241 172
251 236 224 217 222 227 231 231 231 253 214 242 232 217 230 206 228 222 251 218 214 205 238 233 217 219 228 231 240 234 217 215 206 194 211 214 224 230 236 234 216 218 217
241 249 243 237 227 219 231 226 229 233 227 224 238 229 227 217 225 219 227 206 233 201 215 228 216 218 224 217 218 213 193 196 209 213 224 229 235 238 203 216 217 222 226
245 242 232 233 232 257 233 232 229 236 235 239 227 227 232 234 226 225 240 209 236 226 244 212 213 221 215 198 184 200 204 215 220 228 234 207 209 203 216 219 222 228 242
243 258 233 239 243 231 244 257 249 246 243 242 245 229 235 227 236 225 225 229 224 222 220 227 226 195 195 205 212 217 227 231 238 165 169 195 211 214 217 226 240 255 288
241 243 258 263 256 253 250 231 230 229 227 236 237 235 235 236 236 239 243 206 203 198 197 203 205 207 219 229 236 239 226 210 176 211 207 209 218 178 234 269 311 472 437
226 234 234 233 231 225 214 218 216 207 210 212 211 212 215 208 198 195 204 215 211 206 207 224 240 248 254 223 208 206 196 201 209 223 210 217 228 376 507 493 447 366 386

GFSMW_2pvu_pres_030.txt.gz
Presure
178 178 180 185 172 175 179 181 183 181 182 180 184 184 180 177 173 193 200 184 191 192 187 195 203 222 239 232 223 222 215 213 212 222 218 216 216 221 220 153 104 223 100
191 192 197 199 198 189 190 181 182 191 189 189 196 195 209 204 209 194 195 196 192 201 208 212 211 206 204 206 204 205 209 214 214 220 216 201 209 210 204 223 238 240 188
209 212 213 206 202 203 196 195 200 204 196 189 204 202 195 208 193 199 202 203 207 202 208 210 202 201 214 203 176 207 215 211 208 203 200 202 205 216 215 215 217 234 228
215 206 203 210 208 205 204 203 202 202 209 214 205 204 202 199 201 203 206 206 209 201 204 215 206 199 202 209 206 206 219 214 213 213 215 209 213 203 211 218 215 223 218
212 215 213 213 215 214 211 211 213 211 208 96 215 211 206 211 213 207 202 210 209 208 203 200 211 212 196 203 204 212 214 207 203 208 217 217 209 208 212 216 213 218 176
173 201 209 192 208 213 205 209 211 202 199 201 205 208 210 208 205 208 213 215 213 211 212 214 200 198 202 197 199 195 207 208 212 210 202 213 215 212 208 209 211 216 206
205 204 198 200 202 206 205 206 206 203 203 204 208 216 218 215 215 211 211 214 218 211 208 208 205 203 209 218 219 219 201 195 204 204 209 212 212 201 204 213 214 210 215
206 182 206 219 220 229 230 225 216 215 224 237 243 242 247 252 243 225 250 249 245 249 243 226 217 220 222 217 211 216 220 209 206 200 204 218 204 210 211 216 216 213 214
242 192 247 207 238 238 246 243 245 247 247 247 247 248 253 253 253 251 248 248 246 245 247 246 249 249 242 240 245 231 230 213 220 205 204 198 199 205 204 213 212 216 213
214 242 243 247 169 177 241 244 256 255 211 277 184 291 289 284 287 287 291 289 275 254 181 244 240 235 240 243 227 234 215 212 206 208 195 196 205 204 212 211 210 215 218
245 267 251 263 270 270 281 151 146 206 258 262 228 261 210 111 256 261 265 244 174 267 258 253 252 249 246 243 239 232 224 215 209 203 206 206 204 208 205 207 211 218 143
246 267 222 111 258 244 238 259 90 264 240 282 173 280 279 278 272 271 137 231 240 213 242 243 242 242 240 238 234 230 223 213 206 210 213 211 178 171 204 180 219 221 232
266 128 248 242 266 86 122 129 340 372 369 456 417 411 310 297 304 300 287 275 267 264 126 243 235 227 221 224 227 227 227 220 215 204 200 192 204 193 186 226 227 242 248
239 261 258 267 280 279 291 281 316 335 365 377 384 423 385 371 323 294 291 300 291 274 267 177 257 217 198 239 223 223 225 221 219 218 209 220 169 226 226 226 244 245 232
245 256 259 277 262 294 272 265 307 308 356 405 381 353 356 355 366 395 311 289 286 157 255 289 135 196 282 258 264 282 254 178 218 220 225 166 221 195 215 240 235 243 231
258 255 271 256 237 295 227 282 299 300 315 349 423 386 354 349 358 367 362 387 309 290 279 241 187 151 253 177 281 283 263 251 230 160 224 226 219 246 239 235 214 217 212
241 275 257 244 233 223 258 282 285 291 295 309 357 436 419 354 349 347 360 374 357 348 260 183 171 265 265 262 281 151 173 231 215 219 223 231 234 230 235 206 215 228 229
242 263 249 236 226 222 267 203 275 220 278 287 291 303 302 297 298 307 334 342 345 315 319 307 327 322 308 249 198 195 195 184 216 229 206 232 247 227 222 239 231 245 209
241 258 252 235 224 214 217 236 203 249 252 221 253 263 266 268 268 264 268 267 266 262 232 252 242 220 232 218 229 222 207 229 235 239 237 209 233 242 224 223 198 213 226
238 259 249 242 226 226 225 215 232 241 233 202 230 223 255 251 210 236 184 183 227 218 238 171 230 229 180 227 190 231 234 241 215 228 243 218 221 207 198 215 227 228 236
238 250 251 243 241 243 234 231 224 219 214 234 239 219 222 250 249 246 229 230 246 240 207 238 212 243 239 247 236 215 210 218 222 216 221 195 204 214 229 229 237 231 183
237 248 240 249 236 244 249 239 239 235 237 243 232 254 233 225 237 216 213 227 214 223 238 249 224 226 215 222 224 227 225 222 225 203 211 216 225 229 234 232 182 215 219
272 237 246 237 227 235 242 252 246 236 242 230 230 230 228 228 238 245 236 227 237 233 245 222 220 223 214 220 220 203 210 211 211 217 226 235 244 222 182 207 216 221 227
283 242 244 248 237 250 229 223 245 247 244 228 232 236 229 229 230 232 229 231 229 228 230 241 207 207 209 212 211 206 218 229 240 239 213 182 214 211 206 213 203 227 234
284 242 242 253 265 254 256 248 241 242 239 207 224 213 213 213 212 206 213 206 206 211 206 205 205 213 230 240 241 236 223 215 219 186 174 210 205 219 223 231 230 252 451
286 283 233 215 219 228 214 210 210 214 222 226 223 219 214 210 209 199 208 214 229 233 233 232 228 223 219 219 216 216 219 208 145 203 210 203 222 233 238 241 355 327 391

GFSMW_2pvu_pres_033.txt.gz
Presure
181 182 181 178 186 174 173 174 173 171 172 176 171 178 173 179 179 179 184 183 192 185 193 194 196 208 191 193 201 206 204 204 212 219 205 209 210 212 224 213 212 207 220
198 200 197 191 187 190 189 189 188 185 187 185 186 190 194 197 206 194 189 196 203 195 193 209 196 203 199 196 198 207 206 208 209 205 208 210 208 213 218 218 210 205 210
202 208 216 219 211 188 191 186 189 190 194 193 202 206 214 206 204 206 207 202 200 201 212 203 202 197 204 205 203 201 205 206 204 206 213 215 201 208 212 220 218 221 214
222 221 217 221 216 202 200 199 202 210 213 213 214 212 207 205 202 202 203 202 206 212 206 211 202 195 201 200 203 206 206 204 202 207 204 196 202 209 217 216 203 212 211
156 213 176 176 167 218 221 216 216 211 212 216 209 208 206 208 210 210 211 215 214 205 201 205 205 204 201 209 212 203 202 200 192 197 200 200 211 206 220 218 215 213 206
217 150 210 222 223 169 195 126 215 217 212 216 213 217 220 210 208 202 200 202 205 205 201 202 206 213 203 201 195 192 200 202 205 205 204 209 207 217 207 215 216 211 207
212 217 188 189 216 211 212 219 185 189 200 204 203 201 206 208 209 212 212 214 212 210 214 213 210 208 212 210 210 209 203 196 217 216 213 210 217 214 217 216 219 212 224
208 219 217 201 198 204 211 208 207 206 214 213 216 217 214 218 219 220 214 218 213 214 215 218 234 235 233 230 229 230 232 230 236 225 226 224 225 224 225 222 215 212 212
191 191 205 212 208 206 217 219 218 219 209 262 261 255 252 251 250 250 249 248 245 243 236 236 233 234 235 236 227 225 223 225 226 233 238 218 233 225 222 223 209 209 203
211 212 192 206 209 205 186 245 257 250 234 232 240 261 262 188 244 216 284 123 256 242 239 240 244 232 248 251 245 183 235 233 232 224 222 233 210 219 220 214 208 210 208
220 210 243 244 225 247 240 245 279 286 275 214 176 272 275 275 277 184 281 276 274 271 169 229 172 268 270 272 270 257 247 240 239 239 236 219 218 228 225 215 213 212 210
241 242 246 246 246 253 251 284 270 251 97 267 277 278 280 301 303 334 315 306 299 278 268 260 255 248 240 236 235 241 260 250 241 234 228 219 230 224 207 222 218 216 216
240 239 257 262 272 264 252 142 260 256 95 288 306 303 315 335 360 356 358 358 345 331 297 281 259 245 244 246 234 233 227 228 224 229 223 222 225 224 227 214 165 186 152
255 268 277 168 250 259 216 271 282 259 296 298 251 305 370 365 361 373 243 425 381 367 358 294 279 269 248 241 245 241 235 163 220 222 225 188 219 220 163 193 163 213 183
267 265 243 260 250 250 255 258 246 270 302 244 292 323 462 420 402 377 351 337 350 355 344 318 313 280 126 113 162 154 147 139 232 213 235 221 219 201 185 219 216 180 225
235 249 248 238 259 253 265 241 233 257 224 276 290 247 464 410 380 352 338 356 352 357 346 330 320 307 267 269 281 131 171 202 155 260 259 275 162 168 172 169 238 236 227
251 239 237 275 260 275 252 227 237 226 238 269 222 297 307 311 317 342 335 336 350 348 374 350 331 320 259 254 264 272 234 164 260 223 271 260 247 185 197 214 190 229 237
238 181 246 262 249 262 242 230 233 224 235 208 244 230 283 275 252 286 332 315 328 300 297 352 337 334 282 265 216 234 275 207 242 173 234 221 183 236 202 234 237 237 225
270 260 275 257 255 257 235 233 232 226 235 231 221 233 198 236 269 278 274 274 276 280 277 278 278 275 280 331 299 305 256 190 240 228 227 239 217 225 233 223 208 225 224
254 285 263 249 268 255 239 239 234 223 225 220 214 233 233 206 193 237 190 261 209 248 275 203 232 206 255 257 259 254 243 237 218 239 243 238 218 215 219 223 222 215 223
238 244 322 245 257 255 246 250 257 239 226 240 237 242 239 236 240 237 222 231 230 230 223 228 218 217 214 213 222 223 217 221 217 228 224 218 219 222 225 223 225 235 239
232 241 277 246 252 248 242 242 245 253 238 229 237 239 239 228 232 238 232 237 235 237 234 231 235 231 224 224 225 236 227 212 212 206 206 209 214 221 233 239 243 228 158
239 234 257 293 239 250 245 240 240 234 251 250 235 239 241 233 215 213 218 221 223 224 222 219 219 214 211 213 207 206 212 211 212 225 236 239 240 230 222 224 157 218 226
235 227 251 298 250 248 268 243 243 247 241 238 233 233 222 223 222 214 212 213 212 213 218 217 218 217 223 233 235 235 232 228 225 222 222 221 223 228 157 169 221 261 258
251 229 236 298 282 216 250 245 215 242 240 228 237 228 219 210 212 216 228 233 235 242 238 233 228 231 230 227 226 225 226 231 235 243 249 207 151 167 247 247 245 241 237
255 234 243 299 284 225 225 217 229 234 231 223 223 213 209 204 223 219 216 242 241 235 232 228 224 225 221 217 222 225 226 228 228 228 148 220 186 239 237 238 246 238 331

GFSMW_2pvu_pres_036.txt.gz
Presure
177 179 181 176 172 179 178 172 183 189 182 181 179 180 178 180 174 179 181 177 180 189 188 186 191 214 206 206 203 200 194 198 203 202 208 201 206 203 203 207 207 204 210
188 186 186 182 181 183 184 181 179 180 180 182 184 187 187 185 192 193 195 189 186 195 201 207 217 205 201 199 201 196 196 203 201 207 198 198 197 207 210 199 196 201 191
171 185 187 182 181 183 190 189 189 192 190 194 203 210 209 209 199 192 196 203 202 214 215 215 205 201 203 205 206 205 209 211 202 203 201 199 207 202 200 199 198 211 205
191 189 156 165 190 195 193 199 211 215 212 212 203 217 219 219 216 204 201 218 217 211 213 208 208 208 212 214 214 216 208 203 205 197 204 207 196 200 195 202 202 201 225
170 189 177 154 150 155 159 158 212 190 188 222 155 196 217 213 216 222 214 213 214 217 215 217 208 207 204 205 198 210 209 207 202 203 202 194 195 201 210 202 220 222 219
227 225 214 207 203 176 160 205 152 160 218 205 199 222 225 183 220 197 219 190 201 220 214 211 204 208 204 202 198 194 200 202 201 200 201 202 199 208 218 218 215 222 217
153 219 174 152 153 157 144 184 218 218 222 223 201 192 210 207 216 214 174 206 193 203 209 208 212 208 207 209 205 205 206 209 210 206 208 220 222 227 222 218 222 217 220
191 195 215 191 217 199 181 189 189 223 203 220 222 222 218 213 177 212 208 210 206 213 202 215 223 230 237 234 228 234 239 231 230 225 228 226 219 215 214 210 223 220 216
212 217 219 214 198 216 212 181 189 188 222 192 202 218 208 207 222 225 251 259 249 248 246 236 160 224 241 246 245 240 236 197 229 218 217 217 220 215 219 218 220 221 222
211 214 213 203 229 224 204 210 203 206 217 221 219 219 260 255 252 250 261 271 288 287 281 271 264 256 250 242 220 238 188 226 220 220 218 215 217 223 226 229 230 224 234
205 211 222 229 229 213 209 216 215 197 154 244 259 293 279 291 282 279 286 290 291 293 285 277 266 262 259 259 261 257 253 241 237 234 227 217 233 223 232 232 222 226 232
222 222 228 228 222 221 234 230 255 253 256 252 287 276 274 100 293 176 294 321 304 323 320 318 319 293 272 262 253 247 250 252 257 249 240 241 245 239 238 230 235 235 222
231 234 252 247 246 252 227 93 254 286 279 274 220 289 274 280 288 268 259 254 319 270 323 316 320 309 314 320 299 264 252 246 240 248 235 224 221 216 214 221 234 236 217
247 248 247 248 254 247 256 285 278 265 259 260 280 250 247 232 230 226 470 455 422 391 367 350 336 338 340 337 337 319 276 253 247 237 175 237 230 229 187 222 191 215 214
241 240 241 243 252 274 266 265 258 259 255 267 250 263 252 243 243 255 379 368 368 370 356 352 370 373 355 349 325 335 299 267 227 124 238 236 129 165 217 221 229 236 229
223 242 270 269 261 258 258 248 250 256 267 253 244 222 246 235 230 239 365 357 365 356 360 350 340 341 339 338 350 319 325 279 256 254 252 237 138 129 227 148 230 161 257
265 268 251 253 249 250 249 274 247 268 255 245 236 230 235 245 244 217 304 322 324 323 362 351 339 330 322 324 326 321 313 275 257 250 254 260 268 246 188 192 177 161 255
248 237 261 236 260 293 284 246 260 255 247 238 240 234 230 219 226 221 202 227 229 297 299 323 341 325 318 295 314 309 297 233 247 247 250 274 260 251 244 243 229 190 254
229 240 246 252 249 291 247 247 262 247 242 228 227 223 225 238 241 245 258 238 251 253 245 234 280 296 283 288 284 271 212 251 259 256 260 202 246 250 233 230 259 230 223
243 234 233 250 243 309 255 251 266 251 240 250 238 227 242 240 246 241 203 240 247 239 263 241 246 214 234 250 274 282 293 291 294 278 273 262 261 255 219 248 246 245 244
234 228 238 237 243 264 301 250 245 260 245 251 236 239 246 246 246 246 229 230 231 229 234 237 237 241 236 232 228 229 228 226 224 225 223 221 219 218 219 206 220 227 230
227 216 244 228 237 246 304 248 251 244 231 244 262 256 242 246 215 221 235 225 219 224 223 223 223 220 221 212 208 213 209 214 212 221 221 227 228 229 229 227 228 226 223
225 201 239 245 237 238 306 246 251 260 241 236 243 253 215 228 216 219 216 229 237 243 242 244 241 239 236 230 230 229 228 226 225 223 219 219 223 226 232 238 206 245 257
217 229 224 244 239 238 301 249 251 272 267 252 235 220 226 258 212 212 206 211 222 240 242 234 233 233 231 228 224 222 219 218 217 217 218 219 219 219 215 179 236 228 173
213 225 239 224 265 239 304 252 225 223 224 226 247 238 226 213 212 210 210 216 223 230 232 228 230 227 226 227 225 224 225 225 221 220 222 224 226 226 231 234 195 243 255
232 216 243 259 259 257 307 305 232 230 235 233 221 224 226 212 206 215 212 215 216 213 216 220 224 228 227 227 217 223 222 220 226 226 226 235 205 225 153 283 292 296 363

GFSMW_2pvu_pres_039.txt.gz
Presure
176 178 178 178 172 177 176 79 76 173 178 178 172 172 170 173 175 178 178 181 183 182 183 182 190 196 200 197 199 201 200 216 212 212 201 194 199 201 203 205 201 192 200
182 173 170 176 177 180 178 173 172 180 179 180 182 181 186 185 190 181 183 182 192 193 189 207 215 215 219 206 206 202 219 210 205 205 208 207 211 207 208 199 188 195 199
171 176 173 170 176 181 183 181 178 180 178 177 182 189 192 189 191 195 216 201 224 231 223 219 223 224 215 211 215 211 206 213 212 213 208 207 207 198 192 206 206 200 198
176 162 178 175 177 182 188 191 155 154 188 191 190 189 190 200 183 194 219 236 223 218 153 228 225 225 225 221 220 219 182 219 220 214 205 192 199 203 193 194 200 202 199
188 186 168 186 187 174 179 184 196 197 182 165 167 183 157 151 179 186 191 150 169 210 220 178 181 211 213 208 189 211 208 208 204 182 204 200 201 194 193 195 199 195 200
204 201 198 195 193 167 179 185 198 195 197 191 152 179 161 153 169 156 189 222 223 229 227 219 205 211 219 211 209 211 208 207 204 200 201 202 205 201 201 200 201 199 211
193 191 186 144 164 175 178 178 193 184 204 208 203 151 153 182 205 185 183 195 222 216 209 208 211 216 213 212 215 215 217 217 214 208 211 217 223 227 231 231 228 221 214
198 190 185 208 200 196 193 193 192 142 222 220 217 216 185 189 205 225 219 184 185 205 219 214 220 221 222 256 157 253 248 246 240 237 234 234 223 219 223 216 224 223 220
226 190 210 199 187 185 191 205 188 195 193 192 195 203 218 197 217 220 220 221 215 216 226 226 258 259 254 250 249 101 250 245 240 240 236 234 227 226 224 220 217 150 213
201 202 215 230 203 226 220 193 197 214 200 221 214 225 231 224 221 216 222 235 245 264 260 267 285 199 280 280 273 265 269 269 265 264 251 244 230 229 224 222 222 238 230
216 213 224 217 148 228 224 221 225 216 214 214 220 222 225 232 234 245 260 225 299 284 306 296 264 265 268 255 255 269 273 267 257 255 253 256 255 245 237 219 207 198 188
215 216 211 220 236 237 216 219 232 211 224 212 223 236 264 264 261 255 286 285 282 266 252 250 258 252 256 248 231 284 283 291 292 280 243 249 246 243 250 236 233 219 209
225 230 233 231 230 213 217 220 219 219 224 213 265 266 267 297 276 269 133 274 249 246 250 409 361 396 441 400 321 260 294 258 289 285 276 285 260 246 238 239 221 225 230
211 215 211 211 213 216 222 232 249 265 262 263 265 292 282 264 275 269 254 250 242 226 247 400 376 373 299 361 352 337 334 311 292 285 293 257 277 264 259 172 234 223 123
230 230 231 249 254 258 255 252 259 255 253 292 276 270 255 266 267 179 239 236 247 242 221 225 335 376 353 356 356 338 329 326 322 322 303 290 288 271 258 256 226 201 229
254 262 255 249 247 258 243 250 249 285 279 256 262 248 265 261 245 264 250 251 234 232 266 253 372 364 349 344 355 351 355 360 347 320 313 308 297 258 255 262 254 243 239
240 242 239 237 235 232 253 271 274 263 255 263 274 263 254 243 258 243 243 237 252 246 237 255 239 296 326 321 316 316 315 321 326 316 309 299 295 268 250 225 172 242 244
236 232 241 253 246 261 256 248 251 237 287 260 259 261 252 240 239 235 233 259 259 263 252 252 249 250 281 295 191 298 287 280 286 297 302 288 279 268 258 248 249 250 244
243 252 251 263 254 248 246 261 254 306 269 252 269 263 250 248 241 241 240 238 242 229 230 236 233 257 241 248 259 260 279 278 274 267 262 257 254 253 254 254 256 215 234
247 252 253 244 242 243 235 254 247 288 287 258 263 258 248 253 252 248 262 243 210 227 219 233 234 233 231 230 228 253 240 237 237 231 226 228 229 228 229 228 229 228 223
247 250 235 235 243 235 230 247 239 252 303 251 250 253 243 251 266 257 243 219 216 228 237 253 253 253 251 246 242 240 239 234 230 229 229 230 230 229 228 227 227 228 228
241 234 226 242 235 224 241 250 244 253 300 247 255 265 247 229 255 230 229 209 225 204 223 237 237 237 236 236 233 232 230 229 231 225 223 222 219 220 219 217 218 222 225
226 231 232 233 228 226 228 248 254 252 301 249 259 268 250 255 239 224 233 213 211 220 218 228 224 227 228 229 232 232 232 229 226 227 229 226 225 225 223 225 226 226 229
226 219 236 222 216 233 232 231 256 252 314 245 255 280 264 218 229 238 215 209 209 218 216 214 217 215 225 225 218 217 218 220 223 221 220 221 224 226 228 229 229 235 232
222 235 231 210 215 218 243 258 239 263 323 246 228 227 230 240 235 231 222 212 223 219 207 212 210 214 216 221 211 213 216 221 221 222 223 225 226 226 230 242 228 251 325
228 238 218 227 244 222 216 261 249 274 322 258 200 236 242 224 233 233 215 218 216 221 217 211 212 217 211 210 214 216 222 219 215 216 223 217 217 235 243 242 303 277 266

GFSMW_2pvu_pres_042.txt.gz
Presure
174 135 170 170 172 161 168 169 166 167 172 173 171 168 168 172 175 174 179 182 176 183 186 178 190 194 187 200 191 180 230 193 226 226 218 210 212 215 205 207 216 211 215
174 169 166 165 156 165 164 163 165 170 175 172 171 172 179 180 177 182 186 188 183 170 185 189 187 179 184 158 206 239 229 186 174 224 226 221 216 216 209 173 207 205 199
176 185 177 176 174 172 170 177 174 172 175 177 180 179 175 177 181 177 183 191 201 200 177 177 163 161 164 184 165 197 162 193 232 211 195 196 196 213 193 205 203 202 199
186 179 175 183 181 179 175 171 175 161 183 183 186 184 185 184 171 182 191 175 170 211 155 153 147 190 221 227 175 186 197 225 187 212 212 220 216 207 199 204 203 199 199
188 189 186 182 177 179 179 178 175 178 179 178 179 178 187 190 178 155 190 179 202 166 153 219 243 161 208 198 183 220 225 194 219 189 190 209 199 206 206 203 203 204 205
163 175 188 162 168 171 184 177 182 180 160 167 178 181 190 174 187 187 166 188 175 195 214 161 221 213 193 216 206 224 185 190 207 216 221 220 220 226 236 247 243 241 233
181 177 181 189 184 169 168 171 173 175 172 174 187 187 198 196 189 195 190 191 162 169 168 193 199 238 236 239 234 224 227 229 238 248 250 256 251 158 241 238 235 230 229
188 185 184 185 190 194 190 187 188 194 184 183 179 186 203 199 194 203 184 204 186 239 196 216 223 228 229 228 236 256 263 259 259 245 262 261 252 253 241 236 230 232 231
191 190 188 185 182 174 178 177 178 198 193 201 211 210 190 175 187 181 191 196 208 229 233 220 223 223 240 267 251 261 295 279 276 266 270 268 268 268 259 256 252 246 240
207 201 197 199 196 194 192 187 186 194 177 184 194 234 220 224 224 230 220 227 226 217 216 224 238 268 273 289 277 266 269 281 275 273 278 283 265 255 251 248 252 244 242
217 218 220 221 222 221 222 223 223 220 222 203 222 211 200 202 218 220 129 220 213 226 230 273 294 275 275 265 265 261 265 268 277 246 246 257 258 253 250 242 227 258 242
219 217 216 211 209 213 209 212 227 226 219 217 247 240 226 246 237 221 223 226 227 272 304 277 275 267 268 258 259 260 250 239 259 373 342 248 239 243 230 228 242 277 241
241 241 246 250 255 244 247 242 241 230 232 232 225 225 231 221 226 225 232 272 263 279 267 270 263 259 250 262 261 356 258 365 372 396 358 337 312 291 246 238 240 259 265
229 226 225 221 224 225 227 231 223 217 224 220 227 201 231 108 232 275 281 285 270 256 241 254 255 256 259 269 278 369 371 263 353 358 350 345 331 315 293 283 270 269 274
226 221 216 220 223 221 220 219 223 213 213 219 228 236 237 273 254 288 269 285 274 266 253 243 233 272 268 279 272 332 327 337 311 362 342 339 332 326 303 290 272 269 297
231 229 228 226 226 225 228 230 226 220 218 231 273 271 248 291 269 263 276 261 261 253 246 239 249 259 250 245 254 279 299 303 311 326 333 346 318 322 303 292 300 270 266
227 228 230 227 229 229 225 224 222 236 258 256 257 278 267 270 255 271 259 262 255 251 248 250 244 229 226 249 253 224 243 281 283 280 294 318 322 311 307 304 292 295 279
230 231 231 229 228 229 241 258 251 214 248 268 264 273 276 284 264 270 263 255 257 265 243 254 225 242 264 263 259 259 237 249 244 260 262 254 271 265 280 271 262 267 265
250 253 251 252 247 243 245 248 249 268 256 251 249 247 309 274 257 269 264 261 264 246 254 224 219 228 250 242 243 243 241 244 242 243 243 231 229 245 248 244 243 231 233
260 257 258 254 244 245 238 270 252 254 246 238 251 260 237 261 262 272 264 250 265 263 214 222 227 215 242 238 234 238 240 241 242 235 234 234 234 232 230 230 230 228 228
242 240 237 238 242 254 259 249 250 238 228 236 276 247 310 252 262 254 247 238 252 213 219 214 210 216 225 224 227 235 233 228 228 230 232 233 231 230 230 230 229 229 228
256 251 249 241 246 246 246 239 235 244 231 234 280 249 315 255 262 262 253 254 245 232 220 218 206 219 217 214 216 226 228 220 217 222 227 228 223 224 224 223 225 221 215
239 235 245 243 241 239 237 225 244 230 234 239 261 250 322 257 273 271 262 245 225 239 217 205 217 218 209 220 211 217 211 215 218 218 221 218 218 218 217 220 214 211 226
253 245 236 240 234 232 235 242 226 224 222 266 252 314 319 240 231 227 227 234 240 231 227 215 221 221 218 210 208 216 217 214 209 213 213 213 216 217 220 221 225 225 227
234 235 238 235 227 231 222 246 215 216 218 257 259 320 312 254 237 221 237 223 234 233 232 219 215 215 220 212 208 213 212 213 214 212 208 205 215 218 213 226 230 233 253
237 239 231 224 228 224 241 218 224 236 226 251 246 287 305 259 247 231 235 197 201 233 211 210 222 218 204 204 211 210 208 214 214 210 220 225 226 225 218 229 251 261 256

GFSMW_2pvu_pres_045.txt.gz
Presure
136 172 172 162 153 151 151 149 146 148 152 160 152 158 160 158 160 157 168 171 172 175 181 182 184 181 181 175 176 186 187 184 199 171 162 159 213 152 191 181 234 205 209
166 161 171 178 171 171 167 167 162 161 162 161 162 162 161 165 167 172 167 162 168 170 179 170 184 191 183 181 191 173 196 184 161 153 191 222 192 200 191 214 225 191 208
173 170 165 161 159 162 153 163 162 155 159 162 171 173 171 168 169 165 174 181 182 179 186 182 179 183 153 184 166 190 194 164 161 172 214 190 226 208 220 220 201 195 190
179 170 170 174 175 174 169 169 174 177 173 171 170 167 167 176 178 177 162 172 187 168 185 149 186 175 160 196 204 194 153 220 193 179 198 217 227 218 205 225 218 210 210
179 136 179 178 172 172 169 171 176 171 173 174 176 178 177 174 180 184 179 164 167 192 181 195 160 159 193 203 191 213 164 196 222 202 227 229 230 226 229 235 234 243 254
159 175 180 180 177 178 180 180 181 186 187 184 182 151 181 184 171 158 187 168 166 164 171 197 199 201 183 216 183 209 224 220 221 222 215 202 232 233 255 258 259 245 245
178 152 152 161 181 172 190 190 183 184 189 192 194 163 196 191 190 191 185 194 194 195 197 201 206 210 236 230 247 234 220 232 224 229 236 245 141 269 260 262 264 271 275
194 190 185 168 171 170 168 169 188 167 165 166 177 177 179 188 191 191 173 190 180 181 179 185 226 193 221 242 211 225 228 233 239 261 284 246 278 277 276 270 264 275 268
195 194 194 190 182 179 171 162 163 173 178 172 179 176 181 178 182 184 175 183 204 188 197 206 200 215 234 230 231 225 237 260 280 285 278 278 274 276 276 257 263 251 245
205 203 200 198 176 194 188 186 184 175 177 180 185 182 183 181 188 190 197 202 210 224 181 247 245 236 226 227 233 244 274 216 261 269 270 278 274 277 271 259 258 247 245
222 215 201 197 195 196 193 194 194 191 189 183 184 187 194 197 198 212 223 222 236 251 88 235 228 223 233 237 288 267 260 257 256 272 322 410 397 347 342 304 308 280 250
235 221 219 218 217 204 192 193 191 190 197 198 201 202 206 220 220 213 243 251 244 233 225 217 231 233 262 237 273 268 265 248 276 264 277 380 380 361 183 382 340 315 290
246 248 244 239 151 232 222 217 217 213 218 207 217 211 220 232 199 247 241 236 230 218 225 232 282 274 279 281 271 260 249 254 239 248 236 371 372 372 208 353 342 317 298
256 254 249 244 241 237 236 231 232 223 226 224 236 250 244 237 205 240 228 232 235 228 238 260 259 260 279 268 254 242 258 234 264 270 265 352 349 344 339 355 331 308 305
249 245 243 242 242 242 245 242 236 244 248 245 235 233 239 228 228 225 239 227 237 281 278 265 250 267 273 257 245 255 238 264 256 265 265 266 264 355 326 330 346 306 304
268 263 261 254 248 245 254 241 236 235 234 229 227 225 224 226 235 235 244 251 293 281 263 293 269 268 261 257 256 231 263 253 248 257 255 263 239 271 289 319 326 319 186
253 250 245 245 248 228 226 225 226 228 227 227 227 228 233 237 237 246 287 286 262 298 282 271 275 262 261 254 230 238 246 243 247 252 251 248 252 251 228 258 257 264 267
241 234 232 231 226 226 228 237 241 237 228 229 229 227 237 242 259 266 276 257 258 279 258 275 257 270 254 238 224 226 236 230 239 237 233 236 245 246 250 252 245 245 243
241 238 234 235 232 233 233 234 234 226 225 233 239 237 263 258 280 265 253 270 264 262 266 266 259 259 243 226 223 218 216 222 220 235 232 220 236 237 237 232 231 231 231
264 253 244 245 249 224 222 225 232 238 235 250 243 252 252 274 257 245 278 272 305 255 268 239 251 244 231 218 215 221 214 215 216 222 220 218 222 222 225 224 226 223 218
259 246 236 239 247 241 236 237 243 249 254 246 239 265 257 257 248 242 269 314 281 264 265 252 252 235 228 218 211 226 221 219 220 213 220 222 215 216 218 217 217 216 217
251 252 247 243 244 249 254 253 248 240 246 255 251 241 255 241 251 285 307 313 272 272 262 266 241 236 233 224 219 223 221 221 219 208 214 214 215 219 219 215 214 224 220
246 249 248 250 244 235 233 245 251 248 248 243 239 242 238 227 239 335 323 261 236 234 237 248 232 234 238 230 224 218 220 218 214 210 215 213 216 221 217 234 256 243 222
262 266 267 262 259 252 246 240 245 242 242 235 232 238 227 223 268 316 300 256 245 235 239 222 216 228 229 222 205 226 207 205 219 224 220 221 209 219 245 232 204 219 232
243 248 242 238 239 238 241 240 237 233 233 226 248 218 242 232 262 291 301 261 249 243 244 240 199 183 235 210 198 207 210 196 202 219 197 203 238 250 219 247 232 242 255
247 244 241 233 239 248 237 237 232 230 221 242 228 221 231 233 255 266 293 280 257 248 242 241 206 196 195 196 203 234 225 236 238 234 237 237 259 250 242 245 250 252 255

GFSMW_2pvu_pres_048.txt.gz
Presure
169 158 163 161 159 157 154 156 154 152 150 151 153 155 153 152 153 148 149 150 152 161 164 158 157 168 177 162 182 168 154 165 182 186 177 168 162 202 226 186 203 215 219
174 172 169 160 162 165 155 158 159 153 152 150 149 145 147 153 159 161 161 162 156 160 153 175 173 167 184 170 174 158 176 185 178 191 161 201 210 226 227 235 234 223 220
174 162 169 164 170 165 168 167 161 160 159 160 160 159 159 157 156 160 150 161 154 168 163 146 173 172 144 174 170 168 188 172 153 199 194 199 188 181 239 221 219 225 220
186 172 166 173 164 162 169 160 160 165 166 166 164 169 164 162 161 167 173 172 176 167 176 173 165 135 167 161 162 191 159 186 200 187 186 189 225 248 216 229 234 225 227
178 182 181 175 166 174 172 168 167 165 164 168 175 167 175 162 161 167 173 168 145 180 190 187 164 190 191 156 184 189 185 178 197 192 205 238 239 216 235 226 211 238 259
178 190 180 186 183 179 172 166 166 169 169 166 165 165 168 168 169 175 176 157 179 153 178 181 194 180 179 188 180 188 176 209 218 252 229 234 231 233 219 243 263 259 240
186 185 171 174 187 187 183 181 178 177 177 178 180 179 176 173 171 177 178 184 173 188 173 175 177 179 189 191 181 200 211 230 249 246 234 238 230 242 290 264 279 277 267
195 189 188 181 167 165 189 189 188 186 181 156 170 161 162 177 177 173 159 169 172 163 178 179 174 189 190 190 204 208 230 231 236 238 228 161 278 77 277 274 271 262 258
204 195 196 188 188 187 172 162 179 190 186 156 154 154 159 164 172 170 174 172 173 180 177 189 190 189 187 207 203 251 232 237 235 228 256 284 267 276 273 265 272 264 248
239 240 208 195 185 194 192 184 181 181 184 191 183 187 191 188 185 185 173 186 189 189 192 198 191 210 207 114 255 229 243 233 233 267 247 273 256 260 255 266 253 298 404
237 232 236 229 213 198 191 192 191 188 186 188 187 186 185 186 164 187 192 183 196 197 194 202 203 187 229 254 238 241 228 244 291 267 258 265 255 253 258 269 338 377 378
254 246 240 234 229 229 230 207 203 200 200 197 189 188 190 191 190 193 196 196 193 198 204 214 175 260 249 239 237 232 249 280 267 239 273 259 256 261 261 274 360 363 366
276 268 262 255 249 243 224 221 221 219 216 211 203 201 196 194 195 196 203 207 212 219 233 263 249 245 240 235 244 257 280 258 266 268 263 253 255 262 268 262 271 362 354
300 284 269 270 246 261 256 250 244 226 215 213 213 213 215 215 223 234 238 243 246 259 246 249 241 240 237 247 280 276 271 264 271 266 247 239 256 250 246 260 276 265 347
297 297 284 274 256 266 262 257 253 250 249 249 248 248 247 239 245 257 258 253 246 244 243 237 239 240 254 286 265 283 256 279 265 250 231 246 238 240 236 230 248 263 259
277 270 271 283 286 281 265 241 242 244 224 223 227 248 244 245 257 247 240 236 97 238 240 236 243 289 281 268 275 257 267 268 254 236 236 223 223 226 230 225 234 239 234
276 281 277 266 265 263 270 259 252 251 252 239 256 249 255 244 236 229 233 236 241 241 238 271 285 267 278 248 267 273 282 259 242 229 221 220 219 222 223 229 227 229 229
279 272 269 260 256 254 251 250 238 245 256 248 248 237 239 227 229 230 247 242 237 253 276 290 255 268 252 287 272 251 267 246 230 217 219 224 217 226 218 211 223 219 219
276 269 262 258 261 261 264 255 249 243 240 242 239 232 224 225 237 235 230 246 256 271 279 253 251 255 308 260 275 246 253 234 226 221 216 227 226 224 218 213 216 218 222
290 264 263 255 250 253 243 238 234 233 228 227 231 226 232 234 229 226 247 259 277 270 251 262 265 321 267 271 249 251 247 238 229 221 223 220 220 224 217 204 221 219 229
282 286 288 261 250 251 237 237 232 240 229 249 249 246 229 224 232 238 265 283 253 243 243 297 318 267 270 267 258 253 227 240 234 227 225 222 221 212 217 224 227 202 217
261 261 266 269 269 266 253 242 248 252 242 233 236 236 236 242 254 249 269 247 238 244 329 324 265 256 282 268 238 248 249 232 182 212 199 205 220 214 196 234 226 241 256
241 252 246 245 250 249 247 244 247 237 232 231 234 248 246 236 255 254 239 240 229 304 302 273 255 248 238 236 244 189 225 192 231 195 223 232 231 238 240 245 252 260 250
250 240 235 240 245 243 242 245 245 248 247 246 233 228 248 246 248 237 254 227 242 268 306 275 255 248 244 241 242 240 234 214 198 203 206 231 237 244 251 253 247 228 227
253 253 253 250 246 242 239 238 232 230 232 251 243 239 242 243 240 246 229 237 239 259 275 296 277 258 249 245 243 240 238 223 236 236 237 250 252 255 240 226 223 230 236
259 268 262 260 260 260 257 258 251 248 241 231 234 236 237 239 230 245 217 240 225 244 256 269 280 297 294 271 262 262 260 255 258 261 262 255 233 224 225 224 227 234 235

GFSMW_2pvu_pres_051.txt.gz
Presure
174 162 172 157 149 152 161 158 149 149 144 143 144 143 145 145 147 150 152 149 146 141 137 149 162 151 155 146 150 158 174 166 178 181 177 148 188 181 171 177 144 187 248
160 173 155 167 160 154 162 156 160 151 149 146 147 148 150 150 143 151 150 146 149 160 159 158 149 158 155 167 168 161 165 177 158 151 186 189 168 177 174 187 191 215 247
178 167 168 165 163 168 163 160 159 163 161 146 157 155 152 152 151 151 156 160 160 159 160 148 162 162 162 168 167 168 146 165 177 166 164 164 171 189 183 191 214 233 240
200 182 174 167 168 162 164 168 162 158 155 153 153 159 159 155 155 158 159 153 154 161 163 159 155 168 155 163 168 142 173 159 181 185 178 178 186 197 187 212 230 243 219
154 191 188 177 174 169 167 160 165 167 164 160 158 159 161 160 158 159 162 163 161 157 162 165 164 161 171 176 177 169 178 174 168 175 178 192 198 195 213 245 245 218 246
200 192 153 192 181 186 181 179 167 168 172 168 170 171 163 161 163 164 167 170 169 169 160 158 172 179 171 172 164 167 166 170 175 176 194 195 197 209 253 247 242 254 309
173 177 188 179 172 189 193 152 166 173 171 178 174 165 163 164 160 157 162 162 166 173 176 172 167 164 168 178 184 190 187 192 188 198 194 185 230 254 240 242 251 291 289
189 192 175 173 186 187 164 190 189 184 164 178 177 178 173 170 171 171 175 173 171 169 154 154 169 172 189 190 190 198 193 194 200 198 191 216 247 239 199 250 294 275 278
169 177 197 191 190 162 178 186 185 185 171 167 176 178 178 173 176 178 179 179 178 179 180 157 188 189 196 189 196 197 197 199 201 199 216 247 241 240 256 294 281 274 270
245 242 189 176 199 186 187 183 192 194 184 183 182 182 187 168 169 157 174 162 160 176 180 174 182 191 189 189 194 198 197 201 220 233 250 247 243 270 294 280 272 267 263
259 259 256 256 225 193 191 191 189 187 190 194 186 182 186 185 184 186 188 190 190 187 187 187 177 188 191 196 199 196 204 241 252 247 246 240 273 287 279 270 266 253 253
274 275 265 249 238 237 244 242 202 199 193 191 189 189 190 192 192 187 187 192 192 191 193 199 198 203 205 207 98 266 251 251 242 244 241 280 292 275 277 269 254 243 230
257 271 278 279 277 274 268 260 253 243 239 210 205 197 190 189 192 196 196 197 198 201 222 221 216 216 223 252 242 254 246 242 241 241 280 277 278 279 272 256 242 225 221
348 341 340 335 287 282 272 270 272 266 261 216 246 237 231 229 224 228 226 230 227 227 237 230 249 258 230 260 249 242 244 244 246 279 267 268 274 275 258 245 239 224 225
340 331 323 316 314 293 266 260 257 257 259 257 249 244 246 248 248 248 248 246 246 243 261 262 222 254 253 243 239 249 245 266 279 271 285 271 282 264 249 237 216 225 218
319 324 312 305 309 305 300 288 282 280 273 261 259 257 257 216 214 217 255 243 261 249 249 262 253 248 241 240 250 251 288 281 252 263 262 266 273 252 242 224 221 226 232
308 311 304 306 303 288 287 285 289 286 281 272 272 270 263 260 238 237 240 251 251 254 239 252 240 239 242 253 259 288 269 245 258 298 272 260 262 247 229 227 213 230 224
303 294 287 285 290 291 288 291 290 292 253 267 267 266 273 263 253 251 247 245 247 238 245 239 236 246 241 263 286 256 258 264 309 260 267 242 255 235 231 221 223 226 208
303 296 299 284 287 269 257 256 252 255 250 257 273 258 248 249 247 238 251 239 240 230 233 234 247 241 263 277 254 249 278 315 281 267 256 250 248 236 222 219 226 203 215
284 285 302 285 264 263 265 273 276 269 267 257 250 242 243 248 248 239 234 227 227 228 230 252 248 277 273 248 243 324 297 265 272 263 259 259 201 248 191 202 198 214 230
277 286 285 288 287 283 269 263 261 257 251 250 251 254 249 236 230 230 223 226 248 240 238 251 269 265 248 239 293 267 260 244 258 252 234 251 203 201 199 238 236 209 239
276 282 274 265 268 266 267 258 246 245 247 247 240 238 232 225 235 228 225 242 230 233 257 266 252 243 244 295 276 258 250 246 240 238 240 234 236 237 237 230 240 243 252
251 252 266 278 276 274 281 277 270 262 250 252 252 247 241 231 248 244 227 229 247 241 253 261 240 242 270 306 278 261 251 247 247 243 240 239 238 241 248 253 185 260 239
254 252 258 252 256 254 254 253 254 252 252 247 241 242 236 238 239 235 247 238 232 250 251 255 230 237 246 268 285 298 281 267 261 257 257 260 261 259 261 240 223 224 229
248 243 238 236 234 239 239 239 238 240 238 238 236 238 244 238 240 236 235 242 242 244 237 250 239 230 226 232 236 244 247 244 238 236 232 227 220 220 218 223 233 238 239
264 256 254 261 247 242 237 235 234 235 236 238 236 235 236 226 240 244 238 235 239 243 224 235 225 232 223 217 214 217 216 219 220 220 216 216 235 241 246 233 229 232 236

GFSMW_2pvu_pres_054.txt.gz
Presure
196 148 179 171 177 149 124 64 117 125 146 150 149 144 142 143 143 143 151 145 143 150 151 149 152 146 151 151 161 150 144 159 167 153 143 158 165 175 175 181 175 187 176
163 195 182 174 173 172 159 162 146 129 148 126 156 157 154 154 151 147 148 148 138 140 149 145 147 151 157 156 140 156 162 162 152 150 164 167 175 164 175 181 187 175 200
143 195 167 185 166 166 173 167 163 154 160 159 156 150 150 161 159 157 155 152 152 155 158 156 159 160 161 151 163 161 167 150 161 154 172 179 167 172 184 193 176 200 202
211 160 186 155 186 178 168 163 168 161 157 159 160 160 157 155 160 160 158 159 158 159 156 148 128 159 159 160 164 162 155 146 165 173 178 176 181 187 192 186 189 194 199
184 213 203 167 144 183 144 168 166 170 165 142 168 167 159 161 164 160 159 159 159 158 159 160 159 165 162 160 152 156 160 168 175 163 168 168 187 188 203 192 193 200 202
194 109 211 161 196 169 184 187 172 166 168 167 165 161 162 160 152 150 153 160 161 162 164 167 161 161 159 168 169 171 173 176 181 182 177 187 175 188 177 199 180 214 251
208 177 183 187 164 159 180 190 187 179 173 171 166 160 159 158 161 163 164 163 160 160 165 169 175 172 175 162 178 176 167 179 183 171 173 186 183 190 201 205 242 253 252
212 211 177 178 176 166 187 192 186 194 191 179 174 171 169 167 167 168 170 172 174 175 166 165 156 176 183 182 177 180 176 187 170 188 193 196 196 201 224 246 255 243 253
221 216 181 199 187 180 176 202 188 193 196 152 164 179 178 179 178 179 180 184 182 181 157 172 172 177 176 161 171 188 187 190 191 197 193 201 198 226 253 253 246 257 254
229 226 226 222 208 145 191 187 179 175 167 188 195 178 184 186 183 181 185 178 180 181 183 182 180 178 176 186 184 188 190 179 189 201 193 221 240 232 252 248 254 255 292
253 248 246 248 212 231 155 206 178 182 193 184 172 166 167 171 187 169 170 169 175 175 183 186 189 193 191 189 187 187 190 197 198 231 250 250 237 254 246 254 264 281 283
243 250 257 257 258 254 257 201 193 192 175 182 188 189 190 188 185 184 186 181 179 181 183 182 180 188 190 185 193 200 199 253 257 264 251 240 253 242 252 276 270 278 273
288 231 254 255 260 264 263 241 239 256 197 176 174 175 178 194 181 185 183 185 185 184 178 194 192 186 200 198 195 242 255 247 248 264 250 245 240 252 299 268 253 282 277
332 289 290 216 278 244 249 265 265 271 271 273 253 225 194 178 230 210 252 222 264 263 224 228 249 236 254 249 234 263 246 250 259 249 243 239 251 289 273 250 274 268 272
286 263 312 338 357 261 257 261 273 271 264 264 218 263 256 258 260 256 265 262 251 249 247 247 245 249 258 261 230 250 261 251 253 245 238 249 295 265 256 248 287 263 263
367 304 305 354 149 310 289 335 326 269 263 267 266 266 258 258 261 259 247 245 249 245 256 241 252 286 257 247 255 255 245 246 240 247 259 288 264 249 284 294 259 261 246
344 341 296 288 322 324 306 314 324 329 322 310 305 290 295 279 284 280 253 238 249 265 259 266 246 251 254 243 250 244 244 246 251 279 275 256 245 269 304 273 268 250 248
327 332 335 325 284 330 291 292 314 311 313 288 277 270 263 258 262 268 266 265 271 280 264 252 249 248 252 239 244 242 248 259 282 268 251 241 316 308 280 268 262 255 235
294 320 321 322 317 320 323 302 309 299 288 278 271 271 270 282 280 278 259 257 264 254 244 245 252 240 239 238 238 262 245 270 260 252 256 273 277 265 259 264 237 230 247
290 302 305 307 303 303 297 288 293 291 292 289 282 287 276 273 251 248 237 255 239 234 242 244 242 235 231 236 251 243 129 254 298 287 268 253 250 248 243 239 240 240 240
276 292 295 300 302 291 280 272 272 262 273 251 247 244 237 240 251 256 245 235 242 246 240 236 230 236 231 252 238 265 254 253 309 285 271 258 252 248 248 248 244 246 254
267 271 285 285 291 291 291 277 282 272 274 270 259 258 265 257 244 241 236 244 246 247 241 227 231 242 239 234 261 253 243 233 265 291 297 281 272 268 265 264 269 248 233
261 262 259 273 276 271 274 284 288 260 249 247 246 264 255 243 236 242 247 248 238 230 233 238 239 234 243 242 252 243 245 238 235 237 242 241 237 230 226 222 223 218 242
262 255 252 256 254 271 273 258 264 263 261 265 261 253 242 240 239 251 250 237 235 236 230 227 233 248 229 246 243 238 231 234 228 227 223 219 217 217 220 217 229 220 223
279 266 253 256 248 259 261 264 272 267 261 262 265 266 263 257 252 241 229 227 229 228 238 234 231 225 243 240 236 234 232 234 230 207 218 215 212 217 219 228 221 228 226
265 277 263 251 250 247 253 252 251 254 261 260 254 252 248 246 238 235 229 230 230 234 231 224 236 233 240 240 236 232 235 222 234 217 209 212 221 219 218 222 223 224 220

GFSMW_2pvu_pres_057.txt.gz
Presure
175 199 187 188 180 139 171 176 166 168 161 153 143 135 150 147 143 142 141 153 150 144 148 145 146 151 149 150 148 149 159 151 157 158 152 141 168 156 167 170 172 179 182
187 195 159 189 165 191 180 125 178 163 168 162 153 149 152 153 153 152 146 140 150 152 149 144 153 153 148 157 160 154 161 146 161 159 148 158 155 169 172 179 172 182 178
192 190 190 194 197 178 190 182 179 175 158 168 123 122 143 124 127 149 150 138 145 150 155 149 155 158 156 157 163 157 136 158 158 167 164 166 158 172 169 184 178 179 191
194 189 179 177 143 148 189 190 187 179 184 169 172 163 156 160 162 130 159 157 155 155 151 148 151 150 157 156 159 165 159 159 160 158 167 169 165 166 175 159 179 187 188
211 216 192 180 177 178 148 186 191 194 192 177 181 170 171 170 144 158 161 141 152 150 156 156 159 158 156 158 162 162 166 144 167 171 179 166 178 178 175 175 175 180 185
232 216 169 193 182 181 175 163 193 180 193 146 191 174 156 140 169 163 160 167 166 161 159 158 152 158 158 157 163 166 161 168 172 176 156 179 188 177 185 180 197 186 192
250 240 214 211 183 185 187 185 180 174 202 146 190 191 178 175 166 171 164 154 150 159 165 161 157 159 162 163 168 169 169 171 179 157 185 182 185 188 193 194 188 195 193
251 248 247 218 211 190 167 126 184 182 167 201 198 174 155 157 177 174 175 178 175 169 168 167 169 174 172 172 170 171 178 175 186 189 175 187 186 186 188 189 198 197 260
247 96 242 249 217 214 215 187 174 173 180 191 186 180 193 186 185 180 171 174 179 178 178 178 179 176 179 179 179 183 186 185 181 186 185 188 176 188 195 199 208 257 262
244 247 243 243 246 230 215 231 200 184 162 166 144 146 111 190 186 187 172 165 187 165 166 182 155 180 182 183 185 189 187 188 189 181 195 173 192 199 198 214 236 269 256
248 249 246 246 242 249 251 223 229 200 173 161 170 125 168 157 164 186 181 176 176 170 154 185 187 185 187 183 172 167 192 187 186 186 169 193 200 236 229 242 264 259 258
341 205 249 250 248 244 253 259 244 224 210 198 193 162 172 176 161 168 175 161 171 165 163 171 151 163 177 188 155 186 186 185 190 192 195 217 280 240 256 242 257 252 249
262 101 284 277 263 256 248 251 227 260 255 243 218 193 189 170 174 172 173 175 165 172 178 154 175 193 191 182 190 176 186 200 235 254 229 276 235 261 240 252 250 248 267
273 255 300 329 273 272 273 260 252 257 261 263 263 232 163 163 246 180 179 191 195 182 188 180 172 176 177 241 206 238 253 220 258 264 274 247 251 256 248 250 256 276 277
309 282 267 272 163 279 281 295 293 274 266 263 262 261 245 247 284 192 248 192 191 184 185 190 232 261 186 246 243 232 251 235 270 188 256 242 253 251 247 270 297 267 251
319 342 350 299 295 285 340 348 127 277 280 276 283 286 255 273 279 278 278 282 262 249 247 239 249 214 255 278 244 244 237 254 255 244 261 248 249 241 260 280 263 251 319
311 315 348 354 316 313 307 288 287 337 332 290 308 279 315 289 279 278 270 252 276 258 244 277 265 278 255 262 255 255 252 252 245 252 244 240 248 287 277 263 297 279 258
319 315 310 339 331 356 343 295 299 305 341 320 302 308 334 316 313 292 307 279 263 250 238 269 252 241 256 246 273 251 242 237 240 242 241 245 267 267 290 282 272 254 261
291 291 301 298 325 321 349 327 320 280 284 293 300 331 298 311 305 283 289 278 257 249 263 263 250 238 267 258 240 232 245 237 239 235 258 254 263 255 294 275 263 257 253
270 275 297 299 292 316 304 330 319 315 300 302 265 268 304 280 296 291 277 276 276 264 242 236 256 243 250 241 226 240 237 233 234 241 241 261 248 230 281 303 288 281 272
263 271 264 279 288 292 300 290 315 307 302 308 308 305 295 284 273 264 281 275 277 257 253 250 243 239 235 230 232 231 237 226 235 239 249 251 245 230 236 237 240 238 234
264 262 267 264 264 288 292 278 294 291 287 279 279 278 275 273 274 262 253 247 244 237 238 252 237 232 234 238 253 231 226 240 230 246 240 245 237 230 232 228 227 221 222
265 271 279 260 261 273 282 282 273 287 271 276 265 252 252 261 264 243 242 238 253 249 248 237 236 242 235 242 234 234 232 228 236 236 241 242 232 231 226 235 213 219 222
278 278 284 278 258 254 253 273 275 272 286 274 261 265 260 282 267 252 261 243 248 236 237 233 247 244 229 234 227 232 228 234 230 243 238 241 235 243 228 221 223 218 206
272 269 276 271 257 254 249 253 263 268 268 260 261 279 261 248 250 237 247 253 242 240 227 233 253 245 225 226 229 228 230 228 241 244 239 241 229 241 238 220 238 230 228
277 269 268 278 270 260 256 248 243 244 256 261 270 267 265 262 265 259 253 248 235 232 245 248 239 230 227 229 225 224 236 230 244 226 250 240 220 243 244 217 217 242 233

GFSMW_2pvu_pres_063.txt.gz
Presure
198 173 170 174 165 170 174 178 182 139 173 160 123 134 163 162 161 157 157 159 151 157 150 151 155 150 153 145 143 140 152 149 145 133 158 152 151 149 135 156 160 170 169
156 205 186 181 188 187 164 176 180 179 176 167 181 173 166 162 163 163 151 152 158 157 158 151 151 151 154 153 158 155 150 141 128 129 157 144 152 167 141 170 163 165 159
167 155 151 178 179 183 184 200 170 163 167 177 176 176 165 154 170 172 173 167 165 156 163 163 156 153 155 153 162 163 140 120 156 163 162 158 152 166 170 165 162 173 173
173 170 146 152 152 167 176 172 177 172 188 192 194 182 190 178 193 182 125 154 179 170 167 141 163 162 161 153 140 144 149 138 162 159 167 169 158 163 162 170 156 175 186
175 171 148 180 155 155 156 194 181 177 176 166 160 186 200 190 185 135 125 175 132 169 186 189 184 181 173 128 171 164 162 167 169 171 172 166 168 173 169 176 179 163 175
182 181 182 176 179 163 179 180 163 206 225 180 183 193 160 195 191 189 188 144 126 135 185 186 172 186 175 180 183 164 177 174 179 184 185 183 181 142 189 175 165 170 183
186 179 176 179 179 178 146 156 177 194 152 191 195 183 182 183 154 156 158 185 188 161 177 168 155 163 184 187 184 158 178 169 155 185 185 182 171 178 177 183 166 174 188
212 195 179 172 172 175 180 182 182 185 177 222 221 218 199 168 185 175 173 172 160 145 180 183 189 182 166 172 173 160 176 147 169 179 187 184 184 188 189 146 182 188 177
232 222 194 226 188 178 180 183 184 184 185 189 188 175 160 216 211 201 204 182 134 131 126 123 148 130 142 146 161 126 141 154 153 165 173 162 140 168 177 187 163 198 175
222 225 229 229 191 185 182 182 184 184 187 192 195 196 195 191 190 204 221 219 201 196 183 181 165 143 173 132 97 152 156 163 147 156 136 166 157 149 169 172 175 178 166
231 227 232 227 220 206 192 191 189 190 188 188 190 192 198 201 200 192 191 221 220 216 210 197 126 184 152 180 185 179 171 179 167 165 137 169 148 182 157 179 189 203 195
235 235 233 228 223 224 221 214 208 194 192 192 192 191 193 196 210 210 202 191 237 228 216 218 209 197 197 198 153 178 175 155 142 165 150 171 177 184 196 174 188 220 196
251 248 243 240 236 230 226 227 223 217 213 205 201 197 201 204 208 206 216 212 196 249 242 234 219 207 212 206 196 195 167 187 163 166 169 173 195 182 192 209 203 259 224
270 270 270 271 268 259 250 236 158 164 228 229 230 225 228 226 231 235 225 217 214 204 192 267 262 252 242 219 206 206 202 199 188 221 197 209 243 212 204 245 226 251 262
280 298 296 283 281 294 277 273 264 258 231 247 244 243 251 221 258 267 254 229 174 131 124 118 167 258 250 253 260 253 248 279 246 274 257 238 266 263 260 254 244 266 254
299 308 263 269 317 300 276 278 316 275 262 279 262 259 256 256 189 244 256 239 138 228 259 250 236 265 264 267 261 160 242 249 256 264 266 240 272 250 265 240 236 253 240
296 290 272 295 298 297 295 296 300 240 309 306 285 291 309 290 253 272 156 242 165 264 260 266 181 262 246 253 238 243 184 240 249 245 248 260 236 237 238 250 242 243 255
290 306 295 308 291 302 297 279 301 291 290 296 302 216 304 291 244 269 202 252 249 291 279 284 280 289 275 274 275 278 211 205 321 286 283 259 258 246 252 239 235 250 239
275 277 280 286 305 291 297 302 311 307 308 325 346 340 345 291 299 305 310 313 308 272 261 259 263 348 346 341 281 269 281 301 272 278 267 262 245 249 226 237 251 234 229
276 289 284 283 280 285 281 288 289 295 299 312 318 318 348 339 330 337 362 348 293 293 292 295 294 341 343 334 315 299 292 279 270 196 263 250 243 238 236 250 237 227 233
275 275 269 264 268 271 285 283 279 281 282 296 294 304 321 319 312 319 323 326 314 298 288 288 273 277 290 265 213 208 273 263 256 255 247 254 232 244 233 238 233 225 233
256 271 275 276 282 269 259 271 264 270 276 278 284 291 294 314 307 306 304 328 310 314 306 294 295 286 280 256 271 264 260 260 266 259 245 253 243 248 231 233 228 234 228
261 264 277 276 287 313 303 260 262 260 262 261 273 282 292 293 303 291 292 299 288 296 277 279 283 274 284 287 269 270 264 248 242 255 258 243 231 226 229 232 228 229 250
266 263 268 270 286 291 306 284 277 252 274 264 260 271 286 276 280 288 273 277 290 285 274 292 271 261 259 254 263 265 259 249 249 242 231 238 218 221 235 227 227 226 245
268 260 260 271 268 279 279 282 282 273 275 256 255 261 262 271 275 281 281 275 271 271 262 268 265 260 263 255 238 250 241 232 240 232 225 241 232 232 235 234 225 242 245
267 261 258 258 270 269 272 275 275 279 281 272 255 260 254 269 263 269 272 275 262 259 263 249 248 248 251 248 239 244 231 230 244 246 230 232 237 236 238 231 247 247 234

GFSMW_2pvu_pres_066.txt.gz
Presure
199 191 163 169 155 174 171 165 165 178 180 170 160 168 162 160 142 153 159 144 148 165 162 156 159 159 160 153 158 157 158 157 157 156 154 159 165 160 156 132 162 167 168
218 211 182 200 191 182 169 172 168 175 167 182 177 159 162 158 159 169 163 119 162 163 159 160 161 165 161 152 151 160 163 159 164 167 165 160 144 135 127 138 179 179 170
199 180 185 178 202 190 189 175 181 168 167 164 170 172 178 155 161 165 160 166 136 118 175 174 168 160 163 170 170 162 159 142 158 163 167 125 168 174 178 190 181 179 190
186 198 218 209 163 153 160 186 186 182 175 175 163 132 162 140 187 174 177 178 174 182 125 164 149 143 133 126 190 184 177 182 183 184 194 195 190 192 157 184 180 184 182
197 196 183 141 218 215 181 160 187 174 199 170 171 178 179 177 171 174 172 162 161 162 176 180 172 194 196 200 155 133 189 194 190 181 152 180 174 173 147 151 177 145 145
189 198 206 177 219 175 146 162 155 173 191 187 177 181 181 193 183 185 189 171 172 178 167 190 126 198 203 196 182 154 172 190 190 191 183 189 181 185 174 150 158 165 147
180 184 193 209 176 199 226 163 160 155 153 152 151 151 154 177 176 174 174 170 171 173 177 195 193 188 180 180 185 188 183 168 165 177 181 165 182 185 136 141 159 142 134
189 178 180 182 200 207 170 230 228 169 170 144 149 182 153 152 152 160 157 186 182 183 202 200 180 179 130 184 177 185 147 162 134 125 173 133 186 183 149 166 175 144 126
197 192 188 181 182 183 218 187 233 205 178 175 179 178 187 170 168 172 202 192 154 178 222 211 188 184 185 181 181 185 127 133 124 130 141 131 165 177 180 161 154 187 143
208 202 200 199 193 183 187 222 219 174 229 208 206 177 180 181 169 178 180 177 164 185 177 154 201 207 196 200 201 199 198 197 195 191 187 185 169 158 169 155 121 169 178
224 215 212 207 207 202 198 192 208 221 195 182 193 203 177 179 177 180 160 185 185 186 187 188 189 188 189 188 180 178 187 198 211 209 204 203 184 201 198 198 199 192 194
236 231 228 226 221 221 213 210 229 195 220 217 195 203 217 211 191 184 182 118 184 186 185 185 183 187 190 192 202 203 191 189 186 225 219 213 211 209 206 196 205 194 199
246 242 241 240 236 232 227 227 224 218 218 231 236 242 226 212 195 192 190 190 190 191 191 190 190 191 193 190 198 200 199 207 203 189 235 186 231 223 244 217 163 238 257
264 257 251 247 241 240 239 234 231 228 226 225 202 223 232 233 229 224 217 210 202 200 205 201 198 199 203 205 208 166 162 210 193 232 181 222 231 196 203 170 226 204 261
265 266 267 270 266 262 257 249 244 193 234 232 232 231 226 229 227 229 228 227 228 222 219 219 216 218 216 220 210 222 149 218 247 249 240 161 172 177 161 268 229 242 233
256 271 290 147 274 271 273 279 281 276 262 250 247 247 144 134 239 203 241 243 243 156 238 241 102 243 239 237 243 254 251 199 241 246 224 237 252 254 249 249 253 266 293
277 280 267 265 272 254 231 257 255 293 293 311 288 284 279 284 278 267 262 255 258 221 252 254 258 191 172 269 252 262 249 243 247 272 247 262 293 235 232 267 242 197 194
279 283 284 285 288 294 294 291 267 296 302 300 289 288 303 302 291 302 311 318 313 298 293 264 269 294 205 282 264 271 249 242 293 275 273 308 298 304 271 259 312 261 259
273 280 292 285 289 291 310 302 310 295 277 278 326 324 322 326 337 342 350 296 298 320 316 309 306 299 273 269 277 256 249 244 242 245 248 257 290 303 298 275 277 249 250
294 296 288 285 277 274 281 276 296 285 297 288 291 294 308 307 320 326 325 342 353 344 339 374 348 298 312 301 296 291 294 293 308 292 305 296 264 289 282 270 263 246 242
274 269 276 284 283 280 286 284 290 282 282 279 288 289 289 294 297 305 306 326 334 334 319 347 332 327 322 315 303 306 300 279 271 284 286 262 259 262 249 250 247 239 241
262 264 266 265 266 273 282 269 265 265 264 267 274 273 274 275 281 286 300 314 315 315 305 298 311 300 296 290 286 278 284 280 272 275 263 261 261 262 239 237 243 240 254
252 252 255 258 260 260 257 278 283 283 290 265 256 254 262 265 269 268 288 290 300 299 301 299 298 295 304 304 290 270 273 258 263 258 259 243 245 258 245 245 234 251 240
260 260 260 258 265 273 269 268 274 295 303 316 293 266 260 257 255 259 262 276 276 293 281 288 276 274 282 274 267 269 264 272 271 275 263 256 260 256 247 242 242 227 236
278 279 278 275 274 273 269 266 273 268 288 297 291 277 264 261 251 265 272 276 274 279 277 268 274 283 278 265 282 268 258 252 244 254 246 253 242 238 234 229 234 233 223
280 276 273 283 278 270 266 263 264 269 274 282 287 287 278 270 266 255 255 264 269 274 274 279 265 266 256 258 260 253 255 255 247 251 247 235 243 233 229 228 237 242 242

GFSMW_2pvu_pres_069.txt.gz
Presure
174 200 180 191 131 175 156 173 173 131 157 149 182 165 166 168 164 159 162 160 160 164 159 156 162 126 151 164 162 163 164 160 160 160 159 142 159 169 136 165 169 169 160
176 196 190 180 205 215 180 166 184 175 175 175 139 138 154 181 177 164 140 167 157 158 167 162 162 161 167 122 135 159 167 171 142 172 170 179 181 186 191 199 194 188 194
182 174 184 193 188 216 190 180 175 179 170 166 187 170 156 149 160 171 175 177 163 160 161 168 144 167 160 166 169 129 125 136 179 156 134 145 200 134 145 179 196 175 193
182 179 72 171 192 195 212 188 114 180 167 166 166 166 175 169 170 168 167 179 164 179 176 172 172 174 175 165 165 181 177 148 169 161 128 200 204 207 155 173 167 141 165
207 182 181 175 171 184 193 220 167 185 192 181 165 162 168 171 168 171 168 169 171 166 163 168 169 169 181 152 194 187 164 182 199 199 189 194 194 187 185 180 168 187 164
220 193 161 151 181 179 173 194 201 178 162 149 181 143 181 192 176 176 172 181 172 176 179 178 191 174 175 177 185 181 184 177 144 181 116 169 180 183 151 156 158 205 192
216 178 199 188 180 184 184 185 189 204 211 191 196 181 169 151 158 187 189 187 188 184 185 198 181 180 171 164 187 182 147 177 180 170 145 187 116 128 164 191 136 128 193
185 216 213 200 196 192 198 192 186 184 190 204 206 158 194 148 171 170 200 183 185 164 154 149 79 149 150 164 168 177 175 177 172 180 151 198 199 198 125 181 180 178 196
258 196 178 218 202 185 198 200 197 192 189 187 195 221 220 211 146 153 203 158 159 156 152 151 163 202 210 170 168 187 156 192 186 188 191 203 199 199 198 195 177 188 179
221 251 194 185 180 166 202 183 200 207 192 194 201 198 180 206 223 224 193 147 169 158 168 169 178 187 145 148 169 175 192 209 176 178 224 194 181 181 151 194 197 193 192
255 227 212 197 191 221 208 184 182 183 181 184 184 188 200 213 196 163 163 162 162 209 163 180 177 173 180 176 172 175 179 180 171 180 181 176 176 178 167 176 178 185 188
265 257 234 215 206 206 232 224 213 193 191 190 184 181 182 182 183 234 211 206 167 182 181 173 172 174 170 173 180 176 169 174 173 173 175 179 179 181 185 190 179 191 197
257 260 255 242 234 220 206 240 241 231 198 197 199 198 198 199 199 188 185 221 225 204 203 221 234 233 226 225 196 187 185 182 184 182 184 194 189 193 174 208 178 187 207
271 266 263 256 246 238 229 223 218 214 213 211 208 206 207 208 213 215 215 225 212 221 205 208 196 225 223 219 225 212 219 209 163 203 205 187 204 123 209 212 170 227 177
280 277 278 275 272 262 251 246 242 236 232 222 226 225 224 225 150 227 232 230 228 228 227 227 227 228 232 230 135 222 218 216 216 209 214 214 214 213 198 213 230 241 150
268 268 271 274 277 280 282 281 266 258 251 246 240 235 234 233 233 228 227 230 231 232 232 233 233 237 237 237 239 238 141 232 231 230 232 231 238 240 240 265 257 259 236
276 276 265 273 266 269 272 277 288 272 274 278 240 277 277 255 251 248 245 245 244 244 244 245 246 248 251 253 260 263 263 263 260 266 256 262 264 275 259 266 245 242 239
282 284 289 288 286 287 282 273 272 262 293 284 285 287 272 220 267 266 275 267 214 296 304 302 296 292 280 280 274 297 308 294 287 269 277 331 309 307 314 261 293 244 264
277 275 275 270 272 285 285 287 288 286 281 285 289 292 292 289 282 258 256 281 275 324 304 267 274 311 361 353 330 311 305 319 316 305 300 294 297 288 301 330 318 320 305
274 272 274 277 264 269 270 277 272 275 292 282 288 291 303 302 300 304 307 306 311 314 314 319 324 352 342 339 345 377 360 348 357 295 292 300 286 283 315 295 275 291 287
272 281 294 280 298 296 303 298 297 282 285 284 287 278 277 282 290 286 290 293 292 294 296 310 317 317 317 314 347 316 318 325 313 327 305 293 293 285 276 287 281 274 256
279 274 274 273 272 273 272 274 281 272 273 277 273 278 285 285 280 278 279 278 277 279 282 292 297 295 312 303 309 304 301 294 299 286 285 282 281 287 268 270 270 260 251
251 252 257 256 257 256 256 254 262 251 250 250 256 276 282 276 269 260 265 255 257 266 266 274 280 306 294 301 301 307 300 299 279 278 284 271 268 261 252 257 258 248 243
252 253 252 247 245 245 248 249 248 252 260 265 270 257 279 284 289 286 278 273 264 265 256 260 281 278 289 284 280 281 278 266 268 272 274 279 270 272 256 250 238 254 253
265 260 259 259 261 259 256 258 260 263 269 270 271 269 272 276 307 316 304 270 268 259 258 264 251 272 274 268 264 284 286 269 280 270 262 253 271 264 259 256 246 249 250
273 275 275 275 274 274 276 273 276 278 278 276 270 264 268 276 290 291 287 274 271 263 264 256 255 271 265 273 265 262 257 258 261 263 257 259 257 252 259 255 249 245 244

GFSMW_2pvu_pres_072.txt.gz
Presure
171 165 183 187 193 194 228 233 168 167 176 187 179 167 175 178 167 169 159 159 171 165 126 151 163 160 158 165 168 163 134 162 170 145 133 165 127 114 125 162 142 114 144
108 150 157 177 194 195 184 123 102 99 178 180 159 169 166 175 176 155 158 149 160 172 164 155 164 166 166 159 159 156 161 162 149 168 159 172 156 135 142 137 173 147 178
178 89 175 164 159 184 189 191 202 111 138 174 181 170 159 173 170 181 176 147 156 178 143 159 157 164 168 165 168 170 178 174 178 157 172 174 163 166 175 180 189 181 164
205 172 173 173 171 170 161 187 195 199 181 178 182 167 161 157 151 166 175 163 170 163 156 135 176 162 166 183 173 174 175 155 165 102 178 176 173 159 169 189 190 176 159
198 195 186 177 161 162 162 165 186 191 198 167 167 191 209 164 161 188 178 183 188 186 180 181 171 172 181 180 185 172 168 173 177 172 170 170 159 163 130 147 107 125 125
181 189 196 188 172 168 156 162 171 176 193 195 176 179 197 201 175 144 178 172 176 175 169 177 178 180 176 176 175 172 174 164 163 178 181 150 151 157 170 170 138 187 141
202 211 185 196 165 170 166 171 168 171 169 177 182 202 177 196 220 202 188 182 179 181 143 177 180 178 210 201 206 205 192 156 149 145 179 174 161 157 181 185 169 183 186
235 225 206 169 205 196 183 179 160 167 174 169 163 172 181 181 190 200 195 198 163 178 181 142 196 200 177 190 187 149 145 150 146 153 204 162 183 142 194 165 197 200 199
233 254 217 207 183 207 207 210 187 172 170 174 176 169 169 169 169 186 189 194 191 156 184 188 192 176 150 150 152 164 173 169 168 161 164 171 167 163 183 171 165 189 170
288 248 236 239 216 193 198 200 210 208 198 179 155 179 174 178 173 179 183 189 190 186 197 172 198 188 190 192 196 199 204 161 173 159 166 180 176 195 169 162 162 166 173
290 303 303 206 210 201 207 198 211 214 207 207 195 182 174 177 182 179 175 173 175 180 181 188 201 207 209 183 210 182 211 206 221 222 222 196 190 211 185 176 174 176 176
282 295 295 286 264 205 204 201 217 216 185 183 214 212 208 165 206 219 184 187 185 185 186 185 190 197 206 216 222 208 193 194 217 231 225 220 224 228 232 217 218 187 169
261 259 259 266 276 268 233 218 244 227 205 186 187 191 205 206 206 202 207 211 213 189 183 171 173 176 174 175 176 178 181 206 224 216 208 206 211 212 220 226 225 223 210
268 267 266 260 270 277 281 283 235 221 220 253 237 204 196 195 194 204 207 202 201 184 184 183 141 182 184 188 191 195 196 194 208 233 229 232 215 219 225 219 218 216 214
285 284 291 284 278 277 273 270 268 260 243 224 223 218 210 207 205 215 237 234 230 226 225 201 201 202 204 210 214 217 220 228 232 229 230 229 231 231 229 233 232 231 229
299 289 285 279 279 277 273 270 271 270 267 266 270 250 239 233 229 221 215 247 248 247 217 216 218 223 226 228 230 234 239 241 238 237 240 245 244 245 251 250 253 263 261
262 263 265 285 286 279 287 291 289 285 285 290 301 295 287 264 244 239 236 235 204 130 237 237 236 169 236 237 220 238 239 240 242 162 247 252 258 267 280 289 280 279 301
288 285 280 269 249 249 248 248 267 266 285 296 283 275 276 299 299 284 279 289 283 270 263 268 262 266 269 275 276 277 283 304 295 286 303 359 337 300 278 298 315 282 294
281 280 282 284 284 283 283 282 286 294 289 285 298 291 259 301 304 277 301 295 314 319 257 167 321 262 262 264 278 261 255 274 347 351 354 371 370 375 284 272 293 291 290
274 276 293 286 275 265 267 276 270 292 286 293 287 279 277 282 286 283 305 318 298 308 304 313 305 304 315 313 319 314 325 335 328 339 367 300 341 308 354 317 316 300 283
259 259 266 264 260 264 269 273 274 272 275 266 264 279 301 308 299 297 299 296 294 287 291 290 288 295 298 290 294 304 307 328 307 335 317 314 308 311 315 315 317 327 290
267 268 265 270 275 270 269 264 281 308 303 290 288 289 287 293 288 281 281 282 286 300 286 284 283 281 279 281 274 272 295 308 305 307 297 291 294 292 292 297 279 277 290
263 263 293 295 286 307 305 285 274 274 274 273 274 277 272 269 268 263 261 259 269 283 280 273 268 272 270 259 260 267 302 292 288 305 295 295 285 274 278 277 276 263 269
265 262 258 257 256 260 262 259 261 262 260 260 260 258 254 252 250 250 251 252 257 259 281 285 277 265 266 254 261 268 290 284 285 281 278 283 276 266 264 261 260 261 258
271 269 264 260 258 255 250 248 247 248 245 245 242 246 247 247 246 256 266 275 273 273 311 321 308 275 266 254 259 253 280 275 273 272 283 273 274 268 259 260 255 263 259
276 272 271 271 270 272 268 262 257 254 254 254 252 253 252 256 261 265 270 268 270 287 296 294 286 279 266 258 257 258 266 274 269 263 262 261 260 261 260 253 257 250 251

GFSMW_2pvu_pres_075.txt.gz
Presure
177 189 182 167 166 170 166 163 159 162 167 159 158 173 169 173 149 162 169 145 148 159 167 171 143 157 160 159 156 161 169 171 169 161 165 144 170 163 168 166 170 160 171
110 172 191 181 166 157 177 217 218 188 147 163 161 171 157 161 175 170 192 169 174 171 147 168 180 176 164 170 156 160 159 167 167 170 165 154 169 150 179 150 165 172 155
177 171 179 124 206 163 165 150 142 144 174 210 160 162 130 187 177 164 157 170 164 173 178 176 158 155 176 177 152 174 147 151 141 181 167 181 158 171 181 182 173 177 165
174 166 148 178 185 202 166 134 158 190 197 193 168 169 213 137 153 168 163 181 169 173 171 173 169 174 165 166 167 184 185 180 168 160 162 164 167 169 167 167 170 168 169
180 187 178 177 173 181 204 220 162 162 171 181 192 188 202 178 167 175 123 156 158 165 177 179 156 166 175 180 184 178 180 144 166 169 160 170 168 175 185 188 147 93 176
181 201 211 185 159 178 185 182 164 161 160 170 150 191 179 152 180 188 189 187 172 182 183 212 196 220 209 170 177 177 181 181 178 185 187 183 188 116 205 185 97 155 150
210 195 152 182 188 164 169 157 172 165 184 188 166 166 161 175 167 172 180 187 197 190 192 189 197 190 192 203 180 184 203 192 196 191 171 169 175 168 145 163 199 156 162
220 217 203 187 170 163 165 179 180 169 171 168 186 171 161 151 158 147 160 158 192 191 185 189 195 177 176 199 196 203 197 136 199 192 192 180 162 207 201 184 182 195 187
200 199 213 203 209 178 189 215 185 180 171 174 178 178 175 172 159 169 167 170 164 176 191 192 188 198 183 187 189 195 197 199 168 201 208 187 201 201 198 199 199 204 200
277 254 243 215 211 201 211 210 193 184 182 175 171 171 180 168 164 153 170 172 171 173 173 174 175 171 175 191 189 197 186 184 197 194 183 191 184 198 187 192 194 215 216
271 274 266 248 223 215 206 197 205 201 192 173 178 181 182 181 183 181 177 179 173 169 175 163 166 166 178 170 180 181 181 179 179 185 184 184 185 190 193 196 192 184 218
270 278 288 282 273 220 220 219 209 199 204 207 207 206 168 191 154 185 183 188 183 182 153 182 181 173 170 176 178 177 180 183 187 184 173 192 177 172 181 181 177 183 188
276 236 243 285 285 291 285 224 167 195 218 211 202 195 188 164 174 218 205 191 203 202 195 185 169 174 175 180 181 188 190 175 187 188 188 182 183 179 180 170 188 192 194
277 205 254 201 273 278 273 262 291 254 222 221 224 201 195 193 207 205 203 198 201 213 223 225 217 198 193 200 187 217 188 185 200 177 176 171 181 184 190 197 205 214 226
273 277 267 271 264 272 293 297 278 284 279 273 247 228 225 213 210 209 222 196 196 218 220 183 182 190 194 180 184 185 202 206 207 219 149 235 225 193 217 224 231 237 243
269 289 272 269 276 280 293 294 291 278 266 279 284 311 309 241 231 224 217 214 212 213 216 232 231 254 256 204 202 205 207 132 211 249 243 225 235 237 240 242 248 249 249
281 279 268 265 263 267 279 291 285 292 314 305 285 286 287 287 291 291 292 292 246 237 228 223 222 222 220 219 223 126 226 234 202 236 241 243 249 255 258 267 276 291 278
302 310 302 277 303 300 279 289 298 291 285 278 273 275 275 281 286 289 281 276 278 280 282 314 242 296 230 272 273 271 275 283 284 279 281 288 278 277 284 271 278 289 324
273 297 291 283 277 272 270 264 270 278 266 272 264 266 257 253 253 251 262 254 255 255 257 256 261 286 260 259 286 300 277 277 308 245 256 282 323 335 340 258 290 326 339
301 274 272 264 263 285 286 288 289 283 266 285 285 285 285 284 290 255 251 250 256 280 285 290 284 304 239 259 304 296 298 307 306 303 304 248 333 322 355 340 325 329 339
282 287 281 281 277 276 276 272 268 266 266 271 275 277 282 281 281 270 282 285 282 277 310 304 294 296 302 296 272 292 297 290 286 289 281 291 318 318 310 307 306 310 313
281 269 271 260 266 279 277 264 264 266 269 274 271 267 268 265 271 266 270 280 269 285 300 298 287 284 285 283 299 279 278 276 272 269 271 295 304 302 298 294 289 285 292
313 293 276 277 275 263 258 264 264 257 261 260 263 271 273 275 264 295 293 291 289 282 279 277 274 268 266 267 280 277 271 270 271 262 268 266 286 295 299 298 287 273 265
324 331 307 291 269 269 274 270 264 267 275 287 301 289 303 297 282 275 278 278 280 269 268 263 261 261 279 272 279 284 275 269 264 261 263 289 282 279 286 280 275 265 268
340 320 325 318 298 286 269 269 268 260 260 258 255 262 261 268 269 268 268 264 263 261 258 253 253 264 277 281 277 322 307 276 268 261 256 277 274 275 272 264 269 266 262
323 324 319 304 338 303 288 278 266 261 259 255 257 257 257 259 255 252 250 251 251 250 249 248 259 273 274 283 310 299 283 272 264 260 262 279 274 263 261 263 253 255 256

GFSMW_2pvu_pres_078.txt.gz
Presure
197 174 199 143 156 154 143 170 134 177 181 142 180 124 142 169 163 184 173 174 164 155 167 173 163 180 164 153 181 176 142 143 157 167 176 181 178 174 174 152 164 159 162
192 183 212 175 78 157 160 159 150 158 177 170 152 153 151 180 164 163 147 164 176 166 153 156 162 178 182 165 180 193 186 188 146 194 161 167 164 161 169 171 173 174 171
200 189 184 189 171 167 157 165 168 172 151 176 160 159 153 152 170 194 173 193 151 188 169 166 169 157 179 180 176 157 157 176 184 187 181 158 165 173 158 173 170 178 161
207 200 215 188 185 164 157 100 111 170 170 160 160 171 154 131 165 186 191 192 138 150 110 124 161 162 177 170 168 172 187 163 174 172 176 138 177 156 186 160 175 173 193
217 226 201 186 180 185 178 165 161 150 157 156 158 153 182 150 205 184 182 152 186 146 173 117 108 195 124 197 178 181 190 172 177 180 181 188 155 191 148 201 208 198 175
216 211 208 208 199 189 186 173 173 174 161 162 169 157 150 150 183 208 173 184 201 199 191 180 179 164 182 172 191 194 192 193 196 207 215 174 193 183 184 188 167 198 195
224 104 185 151 179 220 183 159 176 189 148 168 164 165 140 139 151 155 175 168 182 188 177 174 177 183 210 184 189 157 180 183 201 226 189 181 196 197 188 194 188 206 182
214 219 212 215 166 162 204 205 179 167 167 174 180 173 178 168 172 158 164 157 149 156 157 145 160 155 151 142 159 173 159 173 163 189 176 185 187 173 179 189 206 172 176
220 230 218 200 206 179 193 140 205 223 179 195 172 160 146 170 192 177 175 177 177 172 185 172 166 151 161 162 159 169 164 173 172 169 176 161 161 177 176 165 178 180 178
231 220 222 208 182 183 191 194 194 203 204 167 211 161 149 172 174 197 178 175 169 169 180 155 152 163 166 171 167 188 181 172 174 162 170 170 174 173 195 184 179 181 185
233 227 225 236 213 185 193 196 200 187 178 173 185 164 166 178 208 209 157 152 177 181 158 184 177 172 161 157 189 190 195 185 182 189 189 190 208 205 181 192 200 170 181
281 264 224 221 219 216 199 200 206 217 193 211 210 170 183 183 170 180 176 174 177 176 187 171 183 178 177 196 195 181 190 189 187 198 168 197 192 198 191 186 198 197 180
278 280 274 252 229 221 211 211 145 214 215 200 180 171 170 175 197 167 193 186 167 180 193 177 196 178 170 160 191 176 188 197 176 197 202 189 183 204 199 232 221 231 143
282 278 282 282 272 236 236 226 190 207 201 199 179 168 181 189 197 159 156 156 195 156 186 158 179 189 189 166 177 196 194 202 202 214 223 219 207 200 204 188 167 172 213
275 283 279 279 279 280 281 296 298 285 234 152 210 217 151 211 208 210 211 154 195 194 191 163 173 195 196 188 199 207 207 203 217 201 211 212 205 208 231 157 256 234 225
274 281 281 276 282 286 282 295 292 290 284 278 261 274 232 235 215 217 127 129 213 210 212 210 205 205 206 221 196 210 217 214 231 232 229 213 251 260 241 227 251 256 258
274 274 273 266 271 275 278 273 265 276 265 263 264 280 275 278 288 269 250 233 229 230 163 210 179 218 219 227 179 226 230 237 239 239 220 247 258 254 269 280 286 289 288
303 295 292 291 284 288 286 280 280 276 285 281 279 269 295 279 277 298 291 282 292 299 276 275 281 280 270 279 282 280 283 304 302 285 280 295 316 302 288 276 258 296 327
304 321 330 326 317 312 309 306 279 276 275 279 285 282 271 250 254 272 265 296 260 286 283 294 299 287 282 294 307 281 304 310 289 285 311 306 273 237 290 254 306 303 337
325 306 278 294 295 299 302 299 299 295 288 287 291 298 267 265 267 266 266 264 264 264 253 277 266 264 265 277 300 253 254 276 272 259 279 275 251 294 256 282 289 319 315
319 341 314 295 286 277 294 285 281 282 283 291 300 299 302 300 272 274 280 277 289 291 285 283 285 276 279 261 241 245 294 301 291 311 299 295 293 281 280 279 285 317 317
242 301 310 339 310 291 279 269 276 286 279 273 273 276 276 277 272 265 263 275 273 279 296 288 287 291 280 298 278 311 303 286 289 293 286 296 278 264 274 258 269 295 296
297 297 308 314 319 328 301 281 277 268 269 279 275 269 266 266 274 270 265 268 271 276 271 269 267 269 301 300 294 288 282 276 279 268 269 278 278 266 269 265 285 289 301
303 311 343 345 342 315 317 311 292 276 273 266 257 254 259 266 275 278 268 261 254 254 254 284 302 295 283 282 278 272 269 264 268 288 274 284 280 269 259 262 274 281 280
313 294 358 343 340 335 311 327 327 303 290 278 270 269 266 263 259 264 269 253 263 281 294 298 284 275 276 274 263 261 261 256 280 284 286 302 291 270 260 262 266 279 278
306 345 353 340 342 335 327 305 318 322 333 296 287 277 268 267 267 273 265 266 280 282 267 273 268 270 265 261 256 251 253 259 280 305 313 293 275 268 261 256 271 268 263

GFSMW_2pvu_pres_081.txt.gz
Presure
200 118 207 81 181 191 203 172 176 170 160 148 152 164 169 143 182 135 166 146 166 169 177 181 160 157 187 177 169 185 174 167 163 177 182 170 178 160 169 180 178 151 169
207 186 174 216 189 200 214 163 166 155 157 154 154 156 177 154 149 155 166 124 179 170 175 154 164 175 160 172 170 163 172 171 184 170 178 163 172 164 174 161 167 168 138
211 195 191 220 203 207 173 182 169 151 164 161 157 151 154 134 173 168 160 150 170 168 147 173 172 163 197 184 163 179 158 165 162 154 165 168 195 203 166 182 172 180 161
204 194 194 196 221 216 171 222 174 163 159 93 161 168 162 152 187 182 159 140 156 173 189 186 168 189 157 170 172 99 207 194 212 181 178 205 167 181 161 181 195 194 183
202 211 209 198 185 209 207 181 166 169 172 187 148 156 167 178 174 159 171 174 169 158 163 151 151 157 212 209 156 201 196 147 223 128 149 195 183 134 157 189 164 176 173
226 207 216 209 198 230 224 166 207 182 142 159 170 180 154 150 165 177 176 159 155 162 164 172 143 153 149 225 191 191 198 177 184 158 152 172 168 176 159 179 158 116 172
213 209 205 192 221 204 197 155 196 191 176 169 172 168 165 166 165 164 165 175 172 154 148 162 161 160 156 166 170 170 147 182 169 173 186 185 177 157 186 177 173 165 170
221 209 204 203 225 213 207 188 186 171 177 171 171 166 147 166 152 168 192 154 166 153 169 156 165 166 176 164 192 177 177 188 181 197 203 190 150 216 169 165 165 206 192
217 243 203 218 216 219 226 174 212 185 187 166 174 158 165 165 172 156 169 173 182 180 168 197 162 166 179 182 188 152 175 167 175 167 162 175 168 182 179 207 219 203 189
221 220 217 206 209 217 203 213 214 202 145 164 194 168 165 171 168 164 161 159 154 182 199 162 181 179 176 178 177 176 186 184 168 191 173 152 182 197 171 191 174 209 187
227 227 221 214 193 219 225 200 225 211 236 171 191 189 146 156 171 218 169 152 159 158 159 156 161 164 169 169 192 169 178 157 172 182 152 167 176 184 155 191 180 189 209
236 241 231 220 220 209 207 212 232 203 209 174 184 213 183 188 186 191 183 216 160 162 158 179 198 169 170 189 181 158 156 222 207 222 195 184 213 221 193 185 186 194 205
247 244 232 227 228 219 226 221 200 196 181 203 213 192 174 218 192 208 189 198 189 190 183 201 192 148 169 156 186 204 205 161 185 159 204 175 193 207 184 195 174 202 192
288 288 241 244 231 229 228 225 219 227 232 223 203 205 218 200 210 224 197 226 221 177 197 215 219 152 144 177 173 179 194 178 188 197 197 189 196 202 175 188 229 194 217
315 310 303 289 233 234 227 229 219 217 195 220 220 226 205 223 196 190 222 190 175 190 198 175 181 187 189 159 173 162 152 203 194 189 178 167 202 189 239 210 230 217 232
273 273 300 300 309 274 224 212 228 228 223 210 210 210 209 204 192 190 189 187 186 153 155 184 155 199 199 133 200 198 163 194 207 200 191 237 225 229 220 214 239 178 249
301 292 282 281 285 284 286 291 238 224 214 212 219 223 213 211 211 207 198 199 195 197 201 189 187 210 200 209 206 207 208 191 197 212 202 203 229 222 220 233 281 211 297
312 338 328 313 298 296 292 290 290 290 269 264 227 219 214 213 215 215 213 213 209 205 205 203 204 207 204 201 210 223 220 227 225 225 224 228 234 261 266 290 296 314 296
242 242 343 363 315 304 292 282 294 296 298 299 300 302 282 228 225 224 224 226 229 226 226 227 227 227 230 228 232 266 303 268 284 310 275 283 296 303 289 301 266 225 285
284 238 261 280 312 343 334 302 298 335 335 297 295 292 291 290 282 265 290 296 292 319 266 270 274 271 268 298 265 268 300 272 277 301 257 288 275 240 227 242 286 309 303
260 245 263 279 284 293 298 303 323 315 293 295 301 306 318 318 311 312 301 287 291 290 285 273 258 257 285 267 250 261 255 253 264 285 269 294 252 302 268 294 300 296 293
259 253 283 303 310 312 234 326 301 302 312 303 296 291 293 288 287 289 292 291 291 291 285 284 289 276 285 266 263 278 252 247 271 257 287 307 306 294 293 287 287 290 290
246 262 312 285 285 296 296 287 255 326 297 308 309 292 285 280 288 292 289 263 306 301 299 285 263 265 256 255 276 270 281 254 280 277 270 298 287 284 275 275 263 261 267
258 269 288 301 329 323 317 317 310 315 324 301 312 314 294 286 280 273 281 280 276 271 265 265 265 271 270 277 273 267 278 267 274 302 289 280 269 274 258 274 285 273 273
258 308 347 332 333 325 329 322 324 321 316 321 302 304 315 297 281 279 271 267 267 269 269 266 265 263 264 268 266 273 263 295 301 281 277 267 257 261 261 285 298 284 276
319 365 354 352 355 348 337 337 335 329 324 329 321 306 315 313 300 286 276 271 269 265 263 263 265 265 267 263 277 261 296 294 277 273 267 255 258 254 282 320 305 289 274

GFSMW_2pvu_pres_084.txt.gz
Presure
173 168 152 152 200 175 204 145 193 201 185 202 199 134 193 177 167 144 143 176 142 179 151 184 133 145 141 97 163 151 156 165 171 175 177 176 179 153 170 148 167 162 196
169 232 205 227 234 218 241 240 240 228 204 213 186 188 189 178 164 139 150 158 141 153 167 124 159 168 136 192 204 156 133 175 168 171 164 181 176 183 162 148 196 172 177
241 225 220 212 190 191 206 223 217 157 209 205 189 189 183 179 159 179 152 147 162 148 169 149 125 121 129 175 142 145 182 155 162 179 185 142 177 157 165 205 204 156 185
226 230 206 181 215 202 208 212 210 178 193 210 142 189 183 191 165 173 170 166 150 162 136 141 135 181 177 154 164 184 140 180 157 202 165 161 195 143 124 145 175 144 159
221 251 222 198 197 203 199 199 196 194 178 183 182 180 152 181 164 152 173 164 161 167 172 172 148 161 150 167 196 185 173 159 142 190 149 142 161 151 152 170 153 144 152
227 215 219 217 199 195 211 196 186 215 195 158 160 187 177 167 183 167 170 154 161 152 139 171 126 194 183 149 152 168 178 161 173 164 165 174 164 179 146 178 215 195 171
223 226 209 203 209 204 198 208 205 190 176 168 170 201 174 171 174 149 155 176 180 167 181 153 184 170 160 151 167 201 180 151 173 182 165 151 158 183 203 182 183 191 153
239 218 216 205 201 226 202 222 201 214 188 199 179 184 197 188 180 178 178 186 132 166 166 196 188 156 167 197 160 173 167 181 153 148 163 187 175 181 173 170 142 184 158
268 218 199 205 197 216 212 201 219 192 212 182 170 189 205 206 180 170 160 174 163 167 144 161 163 163 151 161 161 177 184 160 173 178 204 186 200 214 188 190 198 157 168
222 207 213 201 211 205 201 205 224 206 196 205 197 181 175 187 193 170 170 179 164 155 159 175 167 175 201 198 183 177 186 171 165 177 158 168 184 171 179 178 182 169 183
235 220 219 210 211 211 202 204 216 203 200 190 196 209 201 195 193 178 189 174 190 188 171 178 168 159 152 184 183 172 174 174 198 167 187 186 167 181 181 189 185 193 154
236 230 224 216 211 206 204 210 199 215 203 184 195 218 208 209 207 176 185 178 176 166 175 170 187 205 203 171 186 170 171 163 185 186 193 186 206 177 145 167 157 199 207
225 231 231 233 219 208 217 231 199 197 201 199 197 194 207 196 185 201 197 187 179 178 185 172 183 168 163 173 180 179 164 180 187 189 143 178 167 189 181 146 196 181 204
226 227 238 213 228 220 217 208 217 214 211 208 203 194 200 219 210 212 177 182 182 183 172 167 174 173 177 183 189 174 182 178 203 192 178 171 173 163 160 192 197 201 209
264 233 238 240 227 232 221 221 207 209 220 217 211 215 216 190 204 190 194 191 162 182 188 181 187 187 183 150 169 147 174 152 188 187 199 193 179 196 205 201 194 195 198
307 265 229 234 179 237 219 215 225 224 176 214 235 219 211 204 221 201 209 203 204 200 182 182 176 157 185 189 189 196 186 155 199 197 162 196 203 202 187 164 192 216 197
292 310 339 275 230 241 237 232 219 214 216 221 211 220 212 216 218 209 212 223 204 199 188 189 185 193 170 193 210 195 192 185 207 202 197 213 209 203 200 199 201 201 210
259 249 211 273 215 329 306 227 227 233 233 230 218 230 219 212 193 191 207 212 214 215 221 220 196 208 197 210 207 203 210 200 189 208 203 200 208 214 196 206 213 215 226
256 248 260 269 283 251 258 278 377 359 325 235 229 234 220 224 223 224 226 217 226 214 220 205 204 204 205 211 202 211 204 209 196 193 216 213 213 181 205 200 223 228 216
267 259 266 265 239 260 252 272 287 320 310 360 357 338 245 235 236 229 226 229 222 226 226 222 221 224 224 216 209 208 213 207 204 205 206 204 209 220 197 228 218 279 274
264 261 260 266 275 260 243 251 290 299 326 305 299 310 339 344 324 329 236 237 241 238 230 230 221 224 227 207 209 194 200 217 219 223 218 217 202 217 224 272 309 294 296
247 261 256 251 271 226 225 319 304 276 270 296 301 298 319 326 314 337 317 315 296 298 287 229 233 234 229 225 219 224 221 229 217 212 219 216 258 292 262 276 269 288 299
241 263 268 272 260 286 333 329 330 313 313 302 297 292 297 300 317 304 306 323 313 302 286 295 299 295 301 296 288 279 275 274 288 280 276 301 291 267 280 288 285 284 281
239 260 265 257 305 374 356 346 339 345 317 315 305 306 290 294 281 296 228 297 326 311 298 293 282 278 286 280 277 278 289 279 272 281 265 275 275 253 278 290 276 303 286
256 247 250 288 361 364 366 365 362 363 346 346 331 315 314 297 292 284 290 301 299 304 309 298 286 285 293 285 273 273 268 281 280 275 276 271 275 268 265 292 295 285 272
269 245 298 397 387 386 387 388 387 384 384 379 367 360 339 317 308 309 291 292 296 306 299 307 294 284 278 268 274 282 280 264 269 267 266 266 272 280 285 292 280 269 266

GFSMW_2pvu_pres_087.txt.gz
Presure
133 137 124 130 133 126 155 76 142 128 131 112 128 157 137 165 183 177 170 201 186 181 178 178 169 178 149 165 160 139 128 143 144 176 181 164 189 191 156 163 177 164 151
144 147 135 148 139 125 136 121 125 107 99 131 131 142 186 189 176 171 194 91 124 177 180 184 174 164 177 176 154 149 120 169 146 129 147 133 174 152 209 180 135 189 197
140 149 132 131 148 137 139 120 129 136 143 139 147 187 172 181 144 196 184 189 93 174 177 147 178 154 161 149 160 123 171 167 118 135 154 131 187 139 154 162 157 156 170
145 152 146 134 141 143 149 145 136 136 153 179 169 177 185 188 186 184 192 125 182 173 184 137 159 169 169 137 150 134 156 146 167 178 149 173 178 147 150 155 144 150 184
328 190 223 178 176 171 159 152 224 179 174 198 190 191 180 187 179 194 182 172 172 183 173 147 186 172 174 167 177 155 183 184 191 148 132 165 145 161 174 154 182 215 137
324 295 271 233 198 198 173 165 170 164 169 190 185 187 191 223 198 195 178 181 152 182 188 178 175 175 143 152 167 134 167 168 158 177 149 170 174 146 174 150 180 142 163
278 246 262 241 234 218 222 221 217 195 198 160 187 206 198 205 179 191 162 191 186 193 172 180 189 156 181 185 135 176 141 159 137 160 168 162 176 163 179 151 144 201 158
271 239 230 214 214 224 226 191 205 208 208 170 185 196 205 185 199 185 186 188 185 190 196 192 173 183 189 185 181 181 185 183 179 169 202 194 185 172 172 172 145 133 168
234 229 228 218 209 208 216 215 189 201 207 204 166 178 184 220 213 212 171 206 200 194 187 194 193 199 175 164 172 148 160 172 174 160 161 183 166 173 178 148 172 187 198
241 227 226 216 208 215 201 180 216 217 192 199 211 185 208 204 211 187 188 179 185 210 189 176 178 193 166 196 183 189 175 156 176 191 165 188 150 182 182 201 169 177 187
215 217 229 209 204 200 209 205 203 202 209 213 183 179 195 194 208 207 202 191 206 183 201 206 192 180 168 182 170 185 158 155 154 168 155 175 189 190 155 190 206 170 195
231 212 209 224 203 204 205 188 205 205 194 200 207 196 202 202 197 201 193 183 188 197 175 186 199 198 204 172 179 198 186 204 197 174 192 178 213 177 180 205 160 190 186
224 209 230 217 205 213 210 204 221 221 222 193 188 205 207 206 201 203 190 191 195 183 178 177 185 182 178 173 178 176 190 179 183 194 179 172 176 160 187 156 191 163 173
231 222 212 222 217 207 203 207 213 220 206 188 191 187 200 214 204 200 202 200 204 210 197 205 200 195 188 193 188 191 190 184 194 196 180 175 212 161 172 184 188 164 179
233 209 223 218 222 211 217 218 212 206 211 209 190 160 214 199 199 204 200 207 166 191 211 197 197 190 182 185 187 186 202 192 204 192 182 195 161 178 172 193 152 182 195
234 234 231 225 224 227 203 214 172 170 213 203 202 188 200 219 220 215 214 203 211 178 225 203 204 193 194 183 164 190 179 195 195 191 192 191 191 192 201 184 198 172 191
247 231 249 232 213 214 221 237 218 204 205 225 207 215 222 187 173 208 203 204 196 204 195 167 207 204 191 203 186 188 190 190 195 169 197 196 189 174 198 189 189 193 185
311 259 225 227 242 246 230 220 222 163 219 213 206 221 225 220 211 212 218 210 228 222 211 211 202 203 202 203 188 199 210 181 181 204 180 177 195 191 177 184 200 198 176
269 276 292 284 219 224 222 207 231 223 218 197 215 215 210 228 198 219 214 203 212 210 207 183 185 188 207 203 207 176 202 202 165 197 196 195 192 199 202 202 176 177 178
269 230 244 242 256 260 269 281 222 240 230 224 214 225 194 227 223 217 215 229 222 227 215 187 214 202 203 212 215 210 214 215 185 185 212 205 202 204 221 176 216 213 219
245 234 278 260 223 270 260 309 276 269 252 244 230 231 232 234 228 222 221 227 228 230 228 224 214 213 214 215 212 217 216 207 199 215 209 215 223 218 204 220 201 225 204
235 244 278 247 281 254 216 227 237 271 246 302 260 285 278 276 254 243 243 246 250 261 249 226 217 231 227 219 213 222 210 233 220 201 203 219 203 206 205 219 212 205 211
215 257 264 263 263 266 258 251 273 363 245 380 231 337 263 261 259 254 269 280 302 306 308 298 283 263 224 238 244 236 236 233 227 215 237 221 228 228 227 228 224 238 204
216 238 257 258 264 290 260 285 394 379 369 364 363 356 349 349 338 318 319 315 282 250 300 296 283 286 298 293 295 328 307 294 314 239 235 235 239 262 281 258 268 280 276
229 246 268 260 247 253 286 397 395 393 398 398 395 386 390 364 356 345 327 332 320 304 294 285 283 283 284 290 305 296 289 309 292 291 299 280 278 284 276 272 266 267 262
234 254 263 256 257 328 429 444 461 471 472 467 468 452 443 424 410 395 378 371 348 333 312 295 290 273 281 281 286 293 301 291 304 290 290 289 277 270 262 270 261 288 268